dimanche 11 août 2019

Vous pouvez trouver Le classement original sur : https://www.datasport.com
 
SIERRE - ZINAL (CH)
DISTANCE 31.00 km
dimanche 11 août 2019
 
Place dos NOM PAYS Catégorie Pl/cat temps temps/km Vitesse
01:00:00                
1 1 JORNET KILIAN E ELITE HO 1 2:25:35 04:42 12.78
2 163 MAMU PETRO ERI ELITE HO 2 2:26:31 04:44 12.69
3 94 WALMSLEY JIM USA ELITE HO 3 2:31:52 04:54 12.25
4 23 CARERA JUAN CARLOS MEX ELITE HO 4 2:32:52 04:56 12.17
5 85 SIMPSON ROB GB ELITE HO 5 2:33:55 04:58 12.08
6 31 DOUGLAS ANDREW GB ELITE HO 6 2:34:56 05:00 12.01
7 45 HADORN JOEY CH ELITE HO 7 2:36:15 05:02 11.90
8 15 BONNET RÉMI CH ELITE HO 8 2:36:45 05:03 11.87
9 69 NOOSI TEBOHO LES ELITE HO 9 2:37:09 05:04 11.84
10 54 MAGNINI DAVIDE I ELITE HO 10 2:37:21 05:05 11.82
11 22 CANADAY SAGE USA ELITE HO 11 2:38:14 05:06 11.75
12 53 LUSTENBERGER STEFAN CH ELITE HO 12 2:38:17 05:06 11.75
13 96 WENK STEPHAN CH ELITE HO 13 2:38:21 05:06 11.75
14 9 BARONIAN THIBAULT F ELITE HO 14 2:38:46 05:07 11.72
15 19 BUGGE JOHAN N ELITE HO 15 2:39:08 05:08 11.69
16 74 PUPPI FRANCESCO I ELITE HO 16 2:39:42 05:09 11.65
17 48 KING MAX USA ELITE HO 17 2:40:02 05:10 11.62
18 35 ENGDAHL PETTER S ELITE HO 18 2:40:41 05:11 11.58
19 3 ADKIN JACOB GB ELITE HO 19 2:40:43 05:11 11.57
20 6026 BONIN ARNAUD F ELITE HO 20 2:41:00 05:12 11.55
21 4 ANSIO HENRI FI ELITE HO 21 2:41:43 05:13 11.50
22 86 SURUM ROBERT PANIN KEN ELITE HO 22 2:41:45 05:13 11.50
23 90 VERA DIEGO COL ELITE HO 23 2:41:57 05:13 11.49
24 80 ROLLI DOMINIK CH ELITE HO 24 2:42:01 05:14 11.48
25 21 CAGNATI LUCA I ELITE HO 25 2:42:41 05:15 11.43
26 79 RODRIGUEZ WILLIAM COL ELITE HO 26 2:42:53 05:15 11.42
27 34 EGEA CACERES ARITZ E ELITE HO 27 2:43:14 05:16 11.39
28 41 GERING CHRISTIAN USA ELITE HO 28 2:43:20 05:16 11.39
29 76 RANCON JULIEN F ELITE HO 29 2:43:21 05:16 11.39
30 51 LAUENSTEIN MARC CH ELITE HO 30 2:43:36 05:17 11.37
31 73 ELAZZAOUI ELHOUSINE MAR ELITE HO 31 2:44:21 05:18 11.32
32 63 MICHELON JULIEN F ELITE HO 32 2:44:23 05:18 11.32
33 65 MOULAI TONY F VÉT I 1 2:44:33 05:18 11.30
34 162 KEMBOI JONAH KEN ELITE HO 33 2:44:35 05:19 11.30
35 58 ANTHAMATTEN MARTIN CH ELITE HO 34 2:44:45 05:19 11.29
36 16 BORGIALLI RICCARDO CH ELITE HO 35 2:45:02 05:19 11.27
37 2 AARVIK STIAN N ELITE HO 36 2:46:00 05:21 11.20
38 83 SÉVENNEC-VERDIER ALEXIS F ELITE HO 37 2:46:05 05:21 11.20
39 161 KIRUI TIMOTHY KIMUTAI KEN ELITE HO 38 2:46:14 05:22 11.19
40 64 MORAND MICHAËL CH ELITE HO 39 2:46:17 05:22 11.19
41 75 MARTIN NICOLAS F ELITE HO 40 2:46:57 05:23 11.14
42 30 DEMATTEIS MARTIN I ELITE HO 41 2:47:09 05:24 11.13
43 92 VILLALOBOS BAZAGA PABLO E VÉT I 2 2:47:31 05:24 11.10
44 52 LEBOEUF FRANÇOIS CH ELITE HO 42 2:47:40 05:25 11.09
45 12 BLAKE ERIC USA VÉT I 3 2:47:56 05:25 11.08
46 91 VERMEULEN KEVIN CH ELITE HO 43 2:48:03 05:25 11.07
47 87 SWINBURN NICK GB ELITE HO 44 2:48:10 05:25 11.06
48 6024 ZANABONI MASSIMILIANO I VÉT I 4 2:48:21 05:26 11.05
49 39 FILIMON ABRAHAM ERI ELITE HO 45 2:48:38 05:26 11.03
50 33 DURANCE CLÉMENT F ELITE HO 46 2:49:04 05:27 11.00
51 127 MATHYS MAUDE CH ELITE FO 1 2:49:20 05:28 10.98
52 20 CAELEN FLORENT CH ELITE HO 47 2:49:35 05:28 10.97
53 84 SIMON DIEGO ARG ELITE HO 48 2:49:45 05:29 10.96
54 18 BUCHS PASCAL CH ELITE HO 49 2:49:57 05:29 10.94
55 29 DEMATTEIS BERNARD I ELITE HO 50 2:51:38 05:32 10.84
56 93 WACKER ANDY USA ELITE HO 51 2:51:40 05:32 10.83
57 6015 SANDOR SZABO CH ELITE HO 52 2:52:04 05:33 10.81
58 6057 AUF DER HEIDE MORITZ D ELITE HO 53 2:52:05 05:33 10.81
59 28 DE LOS ANGELES ORLANDO MEX ELITE HO 54 2:52:15 05:33 10.80
60 49 KOSGEI ISAAC TOROITICH A ELITE HO 55 2:52:51 05:35 10.76
61 6003 AIGROZ MIKE CH VÉT I 5 2:52:53 05:35 10.76
62 167 BURRELL GALEN USA VÉT I 6 2:53:13 05:35 10.74
63 26 COSTA CESAR CH VÉT I 7 2:53:15 05:35 10.74
64 82 SCHMID JONATHAN CH ELITE HO 56 2:53:23 05:36 10.73
65 32 DRION MAXIMILIEN CH ELITE HO 57 2:53:27 05:36 10.72
66 6098 QUINODOZ BASTIEN CH ELITE HO 58 2:53:42 05:36 10.71
67 146 WYDER JUDITH CH ELITE FO 2 2:54:20 05:37 10.67
68 6061 BORLAT BENJAMIN CH ELITE HO 59 2:54:38 05:38 10.65
69 55 FEJFAR ONDREJ CZ ELITE HO 60 2:54:42 05:38 10.65
70 6013 DAHL SOMMERSETH STIAN N ELITE HO 61 2:55:39 05:40 10.59
71 38 FARCOZ MASSIMO I ELITE HO 62 2:55:48 05:40 10.58
72 66 MOULIN XAVIER CH VÉT I 8 2:56:03 05:41 10.57
73 138 RAMPAZZO SILVIA I ELITE FO 3 2:56:17 05:41 10.55
74 6030 DELETRAZ ARNAUD F ELITE HO 63 2:56:20 05:41 10.55
75 6082 VIBERT JONAS CH ELITE HO 64 2:56:29 05:42 10.54
76 6014 MARCHAL DORIAN CH ELITE HO 65 2:56:41 05:42 10.53
77 13 BODURKA KRZYSZTOF PL ELITE HO 66 2:56:41 05:42 10.53
78 24 CHERAZ DAVIDE I ELITE HO 67 2:57:38 05:44 10.47
79 6078 ROWLINSON CALLUM GB ELITE HO 68 2:57:57 05:44 10.45
80 6045 JOHNSTON JOE GB ELITE HO 69 2:58:34 05:46 10.42
81 17 BRILL JACKSON USA ELITE HO 70 2:58:49 05:46 10.40
82 70 PEREYRA SERGIO GUSTAVO ARG ELITE HO 71 2:58:54 05:46 10.40
83 6043 FLUCKIGER PAUL CH ELITE HO 72 2:59:51 05:48 10.34
84 46 HERNANDEZ CRUZ ABRAHAM MEX ELITE HO 73 3:00:03 05:48 10.33
85 40 FUMO HELIO P ELITE HO 74 3:00:07 05:49 10.33
86 6019 CARABIN SÉBASTIEN B ELITE HO 75 3:00:39 05:50 10.30
87 6017 GOSSELIN SIMON F ELITE HO 76 3:01:17 05:51 10.26
88 27 DANIELS MATT USA ELITE HO 77 3:01:18 05:51 10.26
89 36 EPINEY LUCIEN CH ELITE HO 78 3:01:28 05:51 10.25
90 109 CROFT RUTH NZL ELITE FO 4 3:01:56 05:52 10.22
91 139 SABRIÉ ANAÏS F ELITE FO 5 3:01:58 05:52 10.22
92 6016 BEURET PHILIPPE CH VÉT I 9 3:02:21 05:53 10.20
93 97 WIESER PATRICK CH VÉT I 10 3:02:22 05:53 10.20
94 142 TROXLER SIMONE CH ELITE FO 6 3:03:18 05:55 10.15
95 89 BAXTER JOE GB ELITE HO 79 3:04:04 05:56 10.11
96 6102 TORELLO VIERA CARLO I VÉT I 11 3:04:15 05:57 10.09
97 61 MÉSZÁROS THOMAS CH VÉT I 12 3:04:28 05:57 10.08
98 6035 LECOMPTE YANIS F ELITE HO 80 3:04:35 05:57 10.08
99 164 LEHMANN CÉDRIC CH ELITE HO 81 3:05:10 05:58 10.05
100 67 NEUSCHWANDER FLORIAN D ELITE HO 82 3:05:14 05:59 10.04
101 60 MEJIA RICARDO MEX VÉT II 1 3:05:35 05:59 10.02
102 6032 FRANÇAIS RÉMI CH ELITE HO 83 3:05:49 06:00 10.01
103 6004 BRODARD MAXIME CH ELITE HO 84 3:06:20 06:01 9.98
104 6051 SANTIN LÉANDRE F ELITE HO 85 3:06:38 06:01 9.97
105 6029 CUNLIFFE GRANT GB ELITE HO 86 3:06:54 06:02 9.95
106 6093 MALGARIDA LUCA I ELITE HO 87 3:07:22 06:03 9.93
107 6027 BUYS NICOLAS F VÉT I 13 3:07:42 06:03 9.91
108 6067 DÜRR MARC D ELITE HO 88 3:07:45 06:03 9.91
109 6068 EPINEY JÉRÔME CH ELITE HO 89 3:07:49 06:04 9.90
110 6034 JOSH TIGHE GB ELITE HO 90 3:07:55 06:04 9.90
111 6002 POCHAT GEDEON SALOMON ELITE HO 91 3:08:02 06:04 9.89
112 113 DESCO ELISA I ELITE FO 7 3:08:17 06:04 9.88
113 133 PAGE HOLLY GB ELITE FO 8 3:08:21 06:05 9.88
114 6050 RISSE TÉRENCE CH ELITE HO 92 3:09:04 06:06 9.84
115 6167 BOURGEOIS IVAN F VÉT I 14 3:09:15 06:06 9.83
116 149 KORTAZAR OIHANA E ELITE FO 9 3:09:15 06:06 9.83
117 44 STEINER MICHA CH ELITE HO 93 3:09:37 06:07 9.81
118 6189 BLANCHARD TRISTAN CH VÉT I 15 3:09:42 06:07 9.80
119 148 CARRION GISELA E ELITE FO 10 3:10:42 06:09 9.75
120 6150 BORDET BENJAMIN F ELITE HO 94 3:10:44 06:09 9.75
121 131 MORGAN CHARLOTTE GB FEMME I 1 3:11:03 06:10 9.74
122 6056 ASCHWANDEN SVEN CH ELITE HO 95 3:11:12 06:10 9.73
123 6063 CORNTHWAITE THOMAS GB ELITE HO 96 3:11:20 06:10 9.72
124 57 MARTI WERNER CH ELITE HO 97 3:11:25 06:10 9.72
125 6084 WOOD JACK GB ELITE HO 98 3:11:36 06:11 9.71
126 124 LEBOEUF THERES CH ELITE FO 11 3:12:26 06:12 9.67
127 6171 MALGARIDA MARCO I ELITE HO 99 3:12:38 06:13 9.66
128 129 MCCORMACK SARAH IRL ELITE FO 12 3:12:45 06:13 9.65
129 165 ANDERHALDEN DONNINO CH ELITE HO 100 3:12:57 06:13 9.64
130 6099 ROBIN ANTOINE CH ELITE HO 101 3:13:11 06:14 9.63
131 6103 ZABALA JIMENEZ MIGUEL CH ELITE HO 102 3:13:16 06:14 9.62
132 6271 TAVERNIER MICHIEL CH ELITE HO 103 3:13:22 06:14 9.62
133 6107 BAUD JÉRÔME F ELITE HO 104 3:13:39 06:15 9.60
134 117 GARCIA DE LOS SALMONES AZARA E ELITE FO 13 3:13:48 06:15 9.60
135 7152 VETTERLI SAMIR CH ELITE HO 105 3:14:09 06:16 9.58
136 6145 ALLENDER PAUL CH ELITE HO 106 3:14:21 06:16 9.57
137 6163 RAPILLARD STÉPHANE CH ELITE HO 107 3:14:42 06:17 9.55
138 98 YUTARO YOKOUCHI J ELITE HO 108 3:14:52 06:17 9.54
139 6037 MONTANARI FABIO I VÉT I 16 3:15:02 06:17 9.54
140 6239 MOUGIN MANON F ELITE FO 14 3:15:19 06:18 9.52
141 6071 HAUTIN JEAN-FRANÇOIS F ELITE HO 109 3:15:55 06:19 9.49
142 6065 DE BESSES PHILIPPE F VÉT I 17 3:16:17 06:20 9.48
143 6125 MARIOTTI LUCA I ELITE HO 110 3:16:31 06:20 9.46
144 116 FERRATO AMANDINE F ELITE FO 15 3:16:39 06:21 9.46
145 6077 ROCH ALEXANDRE CH ELITE HO 111 3:17:09 06:22 9.43
146 6378 MANSON IAIN F ELITE HO 112 3:17:25 06:22 9.42
147 6120 GIRARD DAMIEN CH ELITE HO 113 3:18:02 06:23 9.39
148 6130 MOTTIER FABIEN CH VÉT I 18 3:18:18 06:24 9.38
149 6086 COCHET JULES F ELITE HO 114 3:18:29 06:24 9.37
150 6165 TALLOEN JOOST B ELITE HO 115 3:18:36 06:24 9.37
151 120 GORDON RODRIGUEZ ELI E ELITE FO 16 3:19:06 06:25 9.34
152 6094 MICHAUT MATTHIAS F ELITE HO 116 3:19:06 06:25 9.34
153 6031 FRANKLIN STEVE GB ELITE HO 117 3:19:12 06:26 9.34
154 136 PILA VIRACOCHA MARIA MERCEDES ECU FEMME I 2 3:19:19 06:26 9.33
155 108 CHOLLET MAYA CH ELITE FO 17 3:19:35 06:26 9.32
156 6075 MÉTRAILLER LUC CH ELITE HO 118 3:20:38 06:28 9.27
157 6041 MCEVOY DILLON GB ELITE HO 119 3:20:39 06:28 9.27
158 6092 KÖGLER DAVID A ELITE HO 120 3:21:24 06:30 9.24
159 7 LIZARDO JOSÉ HILARIO PER ELITE HO 121 3:21:38 06:30 9.22
160 8504 HOLLIGER BENJAMIN F ELITE HO 122 3:22:00 06:31 9.21
161 6122 KLEINER NATHANIEL CH ELITE HO 123 3:22:06 06:31 9.20
162 6044 GREINIG SCOTT CH ELITE HO 124 3:22:07 06:31 9.20
163 6207 DUMUSC SVEN CH ELITE HO 125 3:22:12 06:31 9.20
164 6117 FUCHS KEVIN CH ELITE HO 126 3:22:21 06:32 9.19
165 6095 NIEDERGANG ERIC CH ELITE HO 127 3:22:26 06:32 9.19
166 107 CARSOLIO KARINA MEX ELITE FO 18 3:22:30 06:32 9.19
167 72 POINTET JÉRÉMY CH ELITE HO 128 3:23:24 06:34 9.14
168 6214 GOEYERS DIRK B ELITE HO 129 3:23:30 06:34 9.14
169 6039 RIBEIRO DYLAN F ELITE HO 130 3:23:33 06:34 9.14
170 105 BRUYAS CAMILLE F ELITE FO 19 3:23:37 06:34 9.13
171 6136 ROSSIGNON ADRIEN L ELITE HO 131 3:23:48 06:34 9.13
172 6081 VAN OVEREEM MATHIEU B ELITE HO 132 3:24:25 06:36 9.10
173 6332 VALITON VIVIAN CH ELITE HO 133 3:24:33 06:36 9.09
174 6164 RAUBER SEBASTIAN CH ELITE HO 134 3:24:40 06:36 9.09
175 6148 BERNASCONI YANNICK CH ELITE HO 135 3:24:41 06:36 9.09
176 6281 VON DER DECKEN FLORENS D ELITE HO 136 3:25:21 06:37 9.06
177 6021 MARSDEN PHIL GB ELITE HO 137 3:25:28 06:38 9.05
178 6168 COMBY YOAN CH ELITE HO 138 3:25:43 06:38 9.04
179 6066 DUMAS JOËL CH ELITE HO 139 3:26:16 06:39 9.02
180 6290 GABIOUD VALENTIN CH ELITE HO 140 3:26:28 06:40 9.01
181 6358 FERNANDEZ PAU E ELITE HO 141 3:26:35 06:40 9.00
182 6134 RIBEIRO RUI CH VÉT I 19 3:26:54 06:40 8.99
183 6177 BESSE PIERRE-ETIENNE CH ELITE HO 142 3:27:15 06:41 8.97
184 6025 BLACK JONATHAN RSA ELITE HO 143 3:27:24 06:41 8.97
185 6126 MARTI CEDRIC CH ELITE HO 144 3:27:31 06:42 8.96
186 6131 PEREZ RAUL CH VÉT II 2 3:28:03 06:43 8.94
187 5 ARCHER DAVE GB ELITE HO 145 3:28:09 06:43 8.94
188 168 SHERPA DACHHIRI DAWA NEP VÉT II 3 3:28:19 06:43 8.93
189 6158 KURMANN BEAT CH VÉT I 20 3:28:23 06:43 8.93
190 6047 MERTENAT QUENTIN CH ELITE HO 146 3:28:24 06:43 8.93
191 6087 MARCHON THIERRY CH ELITE HO 147 3:28:29 06:44 8.92
192 6173 MISEREZ XAVIER CH ELITE HO 148 3:28:41 06:44 8.91
193 6246 PICCAND CÉDRIC CH VÉT I 21 3:29:10 06:45 8.89
194 6149 BESNIER THOMAS CH ELITE HO 149 3:29:13 06:45 8.89
195 6008 FATTON MARIANNE CH ELITE FO 20 3:29:37 06:46 8.87
196 6284 WIESMANN DAMIEN CH ELITE HO 150 3:29:42 06:46 8.87
197 6224 JUAN FABIEN CH VÉT I 22 3:30:04 06:47 8.85
198 6124 LUISIER JEAN-GRÉGOIRE CH ELITE HO 151 3:30:34 06:48 8.83
199 6114 COSTA PAIRO JOAQUIM CH ELITE HO 152 3:30:45 06:48 8.83
200 6144 DARRAGON HÉLÈNE F ELITE FO 21 3:30:48 06:48 8.82
201 6182 AMATO ENEA I ELITE HO 153 3:30:53 06:48 8.82
202 6166 DEILLON MATTHIEU CH ELITE HO 154 3:30:56 06:48 8.82
203 7090 MELENDO LOIC F VÉT I 23 3:30:57 06:48 8.82
204 6205 DUARTE MICAEL CH ELITE HO 155 3:30:58 06:48 8.82
205 6355 DEGEN CHRISTIAN CH VÉT I 24 3:30:58 06:48 8.82
206 6243 PERROUD CAMILLE CH VÉT I 25 3:30:59 06:48 8.82
207 6083 VIEUX FLORIAN CH ELITE HO 156 3:31:00 06:48 8.82
208 6097 PERRIER NICOLAS F ELITE HO 157 3:31:10 06:49 8.81
209 8434 GIANNICOLA FIONA CH ELITE FO 22 3:31:11 06:49 8.81
210 114 DOUTART MÉLANIE F ELITE FO 23 3:31:23 06:49 8.80
211 8200 KAMINO BRETT CH ELITE HO 158 3:31:25 06:49 8.80
212 6070 FREI PATRICK CH VÉT I 26 3:31:39 06:50 8.79
213 6280 VAUCLAIR FRÉDÉRIC CH VÉT I 27 3:31:55 06:50 8.78
214 6233 MASSON CLAUDE F VÉT II 4 3:31:59 06:50 8.77
215 118 GIOVANDO CHIARA I FEMME I 3 3:32:33 06:51 8.75
216 6395 ROTHLISBERGER BASTIEN CH ELITE HO 159 3:32:44 06:52 8.74
217 6115 DUFAUX MANUEL CH ELITE HO 160 3:32:51 06:52 8.74
218 150 BERTSCHY AMÉLIE CH ELITE FO 24 3:32:58 06:52 8.73
219 6109 BOURQUIN LUCIEN CH ELITE HO 161 3:32:59 06:52 8.73
220 6154 CUNY FLORENT F ELITE HO 162 3:33:00 06:52 8.73
221 119 GIUDICI GLORIA I ELITE FO 25 3:33:30 06:53 8.71
222 8 BALDACCINI ALEX I ELITE HO 163 3:33:30 06:53 8.71
223 6011 HIHN BRUNO F ELITE HO 164 3:33:33 06:53 8.71
224 8528 UMBRICHT SARAH CH ELITE FO 26 3:34:08 06:54 8.69
225 6135 ROLLIER BRICE CH ELITE HO 165 3:34:22 06:55 8.68
226 6269 STROHMEIER SEPPI CH ELITE HO 166 3:34:24 06:55 8.68
227 6272 TAYLOR BRENDON GB VÉT I 28 3:34:38 06:55 8.67
228 6180 DÉVAUD LOÏC CH ELITE HO 167 3:34:43 06:56 8.66
229 6500 LJUNGGREN JENS CH ELITE HO 168 3:34:45 06:56 8.66
230 6308 CLIVAZ VIRGINIE CH ELITE FO 27 3:35:00 06:56 8.65
231 6080 THIÉMARD MARC CH ELITE HO 169 3:35:02 06:56 8.65
232 6162 PISANO FILIPPO CH ELITE HO 170 3:35:04 06:56 8.65
233 6453 ROBBE GABRIEL F ELITE HO 171 3:35:15 06:57 8.64
234 6132 RAMSER TANGUY CH ELITE HO 172 3:35:19 06:57 8.64
235 147 YERLY LAURENCE CH FEMME I 4 3:35:20 06:57 8.64
236 6113 CHATELAIN-CADET BRICE F ELITE HO 173 3:35:23 06:57 8.64
237 6159 LACHAT STÉPHANE CH ELITE HO 174 3:35:24 06:57 8.64
238 6108 BIERI MATTHIAS CH ELITE HO 175 3:35:34 06:57 8.63
239 6501 MAILLARD JÉRÔME CH VÉT I 29 3:35:35 06:57 8.63
240 6313 GEYPEN KIM B ELITE FO 28 3:35:39 06:57 8.63
241 6419 BOONE THOMAS CH ELITE HO 176 3:35:57 06:58 8.61
242 6289 FASANA LORENZO I ELITE HO 177 3:35:59 06:58 8.61
243 6152 CHIDLEY CHRISTOPHER USA ELITE HO 178 3:36:10 06:58 8.60
244 6169 FURRER OLIVIER CH VÉT II 5 3:36:45 07:00 8.58
245 6249 RAUCY EMMANUEL B VÉT I 30 3:37:13 07:00 8.56
246 6325 PEARSON PHILIP GB VÉT III 1 3:37:15 07:00 8.56
247 6055 AMOUDRUZ RENE F VÉT III 2 3:37:24 07:01 8.56
248 6415 WYWLOKA PAULINA PL ELITE FO 29 3:37:44 07:01 8.54
249 6064 CUENOT GASPARD CH ELITE HO 179 3:37:48 07:02 8.54
250 121 HEGEMANN IDA-SOPHIE D ELITE FO 30 3:37:59 07:02 8.53
251 6174 REGUERA HECTOR CH ELITE HO 180 3:38:23 07:03 8.52
252 6385 PERRIER GAËLLE CH ELITE FO 31 3:38:33 07:03 8.51
253 6250 RAY JEHAN-NATHANAEL CH ELITE HO 181 3:38:37 07:03 8.51
254 6336 MARCHESI DANIEL CH VÉT I 31 3:38:47 07:03 8.50
255 6507 SOTTAS LUDOVIC CH ELITE HO 182 3:38:53 07:04 8.50
256 6216 GREMAUD ARTHUR CH ELITE HO 183 3:38:59 07:04 8.49
257 106 CAMBOULIVES ALINE F FEMME I 5 3:39:05 07:04 8.49
258 6392 REMIREZ JAUREGI DANEL E ELITE HO 184 3:39:07 07:04 8.49
259 6225 JUILLERAT JEAN-LOUIS CH VÉT I 32 3:39:08 07:04 8.49
260 6116 ERNE DOMINIK KELSANG CH ELITE HO 185 3:39:16 07:04 8.48
261 6160 LOUIS MATHIEU GB ELITE HO 186 3:39:17 07:04 8.48
262 6183 AMBROSE MIKE CH ELITE HO 187 3:39:30 07:05 8.47
263 7060 HIRSBRUNNER ALEXANDER CH ELITE HO 188 3:39:41 07:05 8.47
264 6170 KOLLY ERIC CH VÉT II 6 3:39:41 07:05 8.47
265 6112 CHALK BRANDON CH ELITE HO 189 3:39:43 07:05 8.47
266 7082 LURIA RENÉ CH ELITE HO 190 3:39:51 07:06 8.46
267 8508 JUNG NIKLAS CH ELITE HO 191 3:39:55 07:06 8.46
268 6072 HEERFORDT JOHN CH ELITE HO 192 3:40:00 07:06 8.45
269 6227 KREBS BENJAMIN CH ELITE HO 193 3:40:04 07:06 8.45
270 6495 GEISER NATHALIE CH ELITE FO 32 3:40:10 07:06 8.45
271 6211 FAYET JOHAN CH ELITE HO 194 3:40:14 07:06 8.45
272 6414 ROUILLER MICHÄEL CH ELITE HO 195 3:40:18 07:06 8.44
273 6219 HANSEN NILS CH VÉT III 3 3:40:27 07:07 8.44
274 6121 JOTTERAND STÉPHANE CH ELITE HO 196 3:40:35 07:07 8.43
275 6054 AMOUDRUZ ANTHONY F ELITE HO 197 3:40:58 07:08 8.42
276 128 MATRASOVA KATERINA CZ ELITE FO 33 3:41:11 07:08 8.41
277 6175 SINGENBERGER MARTINO CH ELITE HO 198 3:41:15 07:08 8.41
278 6161 PAPI NICOLAS CH ELITE HO 199 3:41:21 07:08 8.40
279 6129 MOLDOVEANU DANIEL CH ELITE HO 200 3:41:36 07:09 8.39
280 6255 RUEFF JUSTIN F ELITE HO 201 3:42:01 07:10 8.38
281 6291 MEYLAN STEVE CH VÉT I 33 3:42:06 07:10 8.37
282 6100 SAUVAGET ARNAUD CH ELITE HO 202 3:42:14 07:10 8.37
283 6106 BALDUCHELLI YAN CH VÉT I 34 3:42:17 07:10 8.37
284 8493 BONNANT ARTHUR F ELITE HO 203 3:42:36 07:11 8.36
285 6209 DÉGLISE WILLIAM CH ELITE HO 204 3:42:39 07:11 8.35
286 6179 DEKEYSER LAURENS CH ELITE HO 205 3:42:52 07:11 8.35
287 6456 VALZINO JEAN-PHILIPPE CH VÉT II 7 3:43:05 07:12 8.34
288 6391 RASTROEM MAGNUS CH VÉT I 35 3:43:05 07:12 8.34
289 6038 NGUYEN KHOA CH ELITE HO 206 3:43:14 07:12 8.33
290 6490 BUEHLER LUZIA CH ELITE FO 34 3:43:14 07:12 8.33
291 6188 BARRAS DOMINIQUE CH ELITE HO 207 3:43:19 07:12 8.33
292 6335 WEILENMANN FELIX CH VÉT I 36 3:43:24 07:12 8.33
293 6438 HAZEGHI CYRUS CH VÉT I 37 3:43:26 07:12 8.32
294 6142 VACHON CHRISTIAN CAN VÉT I 38 3:43:28 07:13 8.32
295 6539 ZOUADINE AZDINE F ELITE HO 208 3:43:49 07:13 8.31
296 6222 JEANNE ARTHUR F ELITE HO 209 3:43:51 07:13 8.31
297 6485 CHRISTE LUCINE CH ELITE FO 35 3:43:55 07:13 8.31
298 8519 REY JEAN-YVES CH VÉT I 39 3:44:01 07:14 8.30
299 6286 ZERIBI MATTHIEU F ELITE HO 210 3:44:02 07:14 8.30
300 137 MOERMAN CHARLOTTE CH ELITE FO 36 3:44:05 07:14 8.30
301 6212 GAILLE JULIEN CH ELITE HO 211 3:44:08 07:14 8.30
302 6104 KLEIN DAVID NL VÉT I 40 3:44:12 07:14 8.30
303 8139 BUSCHINI DORIAN CH ELITE HO 212 3:44:31 07:15 8.28
304 6422 DAMOUR JÉRÔME F ELITE HO 213 3:44:33 07:15 8.28
305 6197 BRUNNER IZMAEL CH ELITE HO 214 3:44:42 07:15 8.28
306 6133 REIN STEVE CH ELITE HO 215 3:45:06 07:16 8.26
307 7124 ROUVROY ANTOINE B ELITE HO 216 3:45:42 07:17 8.24
308 6278 VARÉ LIONEL CH ELITE HO 217 3:46:03 07:18 8.23
309 6296 WILDBERGER GABRIEL CH ELITE HO 218 3:46:04 07:18 8.23
310 6288 DAVIN GUILLAUME F VÉT II 8 3:46:05 07:18 8.23
311 6386 PERRIER MARTIN CH ELITE HO 219 3:46:07 07:18 8.23
312 7472 PERRIN JOHN CH VÉT I 41 3:46:16 07:18 8.22
313 6262 SINGY NICOLAS CH VÉT I 42 3:46:16 07:18 8.22
314 6155 DECKERS OLIVIER B VÉT I 43 3:46:25 07:18 8.21
315 6073 HENRY JULES CH ELITE HO 220 3:46:26 07:18 8.21
316 6265 STEVENSON CHARLES CH ELITE HO 221 3:46:46 07:19 8.20
317 6258 SCHNEIDER DAMIEN CH ELITE HO 222 3:47:01 07:19 8.19
318 6153 CHOFFAT JEAN-LUC CH ELITE HO 223 3:47:11 07:20 8.19
319 6172 MARTIN FRÉDÉRIC CH ELITE HO 224 3:47:14 07:20 8.19
320 6340 ANTILLE STÉPHANE CH VÉT I 44 3:47:15 07:20 8.18
321 6147 BARTOLINI ALAIN CH VÉT I 45 3:47:19 07:20 8.18
322 6085 CARDINAUX PIERRE-YVES CH ELITE HO 225 3:47:22 07:20 8.18
323 7104 MULLER BRICE CH ELITE HO 226 3:47:28 07:20 8.18
324 6293 PRESTON ANDY GB ELITE HO 227 3:47:33 07:20 8.17
325 6140 SIGGEN ARTHUR CH ELITE HO 228 3:47:34 07:20 8.17
326 6424 DE SALIS YOUNG EDWARD GB VÉT II 9 3:47:38 07:21 8.17
327 7127 SANDMEIER MARIO CH VÉT I 46 3:47:53 07:21 8.16
328 145 QUIGLY AOIFE D ELITE FO 37 3:47:53 07:21 8.16
329 7076 LAMOUR JULIEN F ELITE HO 229 3:48:03 07:21 8.16
330 6285 WISARD QUENTIN CH ELITE HO 230 3:48:07 07:22 8.15
331 7379 EGER ANTOINE F ELITE HO 231 3:48:16 07:22 8.15
332 6267 STRANSKA ADELA CZ ELITE FO 38 3:48:22 07:22 8.14
333 6519 BESSON PIERRE OLIVIER F ELITE HO 232 3:48:34 07:22 8.14
334 6523 BOLAND THOMAS GB ELITE HO 233 3:48:37 07:22 8.14
335 6137 ROY ALEXANDRE CH ELITE HO 234 3:48:38 07:23 8.14
336 8116 SHAW BART GB ELITE HO 235 3:48:38 07:23 8.14
337 6421 CATTIN JOËL CH ELITE HO 236 3:48:55 07:23 8.13
338 6398 SCHREIBER SIMON CH VÉT I 47 3:48:55 07:23 8.13
339 6376 MAGNIN RAPHAËL CH ELITE HO 237 3:49:06 07:23 8.12
340 7129 SCAMUZZI ROBERTO I ELITE HO 238 3:49:20 07:24 8.11
341 6090 CLAVERA SORIANO DAVID E ELITE HO 239 3:49:26 07:24 8.11
342 7154 WÄLLE FANIA CH ELITE FO 39 3:49:33 07:24 8.10
343 7264 GONIN VICTOR CH ELITE HO 240 3:49:42 07:25 8.10
344 6314 GIGON ALEX F ELITE HO 241 3:49:55 07:25 8.09
345 6304 BOURICHA-HÖRMANN HANS D VÉT III 4 3:49:56 07:25 8.09
346 134 PENA VASQUEZ LUISA NICANDRA MEX ELITE FO 40 3:49:57 07:25 8.09
347 8499 DAFFLON CAROLINE CH ELITE FO 41 3:50:10 07:25 8.08
348 6324 NÜß MARTIN D VÉT I 48 3:50:13 07:26 8.08
349 6387 PILLET NADOUK CH ELITE FO 42 3:50:19 07:26 8.08
350 6201 CORNUT OLIVIER CH ELITE HO 242 3:50:35 07:26 8.07
351 7153 VOLET VINCENT CH ELITE HO 243 3:50:47 07:27 8.06
352 6343 BONATI JONAS CH ELITE HO 244 3:50:47 07:27 8.06
353 6295 SIGGEN BASTIEN CH ELITE HO 245 3:50:52 07:27 8.06
354 6299 QUIQUEREZ BASTIEN CH ELITE HO 246 3:51:00 07:27 8.05
355 6322 MASMEJAN OLIVIER CH ELITE HO 247 3:51:01 07:27 8.05
356 7285 JANSSENS JÉRÉMIE B ELITE HO 248 3:51:02 07:27 8.05
357 6439 HEGG HANSJÖRG CH VÉT II 10 3:51:03 07:27 8.05
358 6357 FAVRE NIELS CH ELITE HO 249 3:51:05 07:27 8.05
359 7440 LOPEZ GONZALEZ JORGE CH ELITE HO 250 3:51:14 07:28 8.04
360 6517 BECAERT STÉPHANE F VÉT I 49 3:51:16 07:28 8.04
361 6436 GOETSCHMANN TOBIAS CH ELITE HO 251 3:51:21 07:28 8.04
362 6344 BOOTH PAUL GB VÉT I 50 3:51:26 07:28 8.04
363 6457 ZWIKER KATJA CH FEMME I 6 3:51:26 07:28 8.04
364 6010 ALBUQUERQUE BRUNO CH ELITE HO 252 3:51:34 07:28 8.03
365 6505 MCDOWELL JASPER CH ELITE HO 253 3:51:40 07:28 8.03
366 6331 SCHILD SIBYLLE A FEMME I 7 3:51:42 07:28 8.03
367 6184 ANDREY JOHAN CH ELITE HO 254 3:51:50 07:29 8.02
368 6256 SASSI RENAUD CH ELITE HO 255 3:51:51 07:29 8.02
369 7036 FOURNIER FABRICE CH ELITE HO 256 3:51:55 07:29 8.02
370 6409 VIRET MARJOLAINE CH ELITE FO 43 3:52:04 07:29 8.01
371 7495 ROSSINI OMAR CH ELITE HO 257 3:52:26 07:30 8.00
372 6046 MATILE GRÉGORY CH ELITE HO 258 3:52:32 07:30 8.00
373 6489 BOUZIDI MESSAOUD L VÉT I 51 3:52:56 07:31 7.99
374 6058 BEER OLIVIER CH ELITE HO 259 3:53:06 07:31 7.98
375 6315 GILLES MARTIN CH ELITE HO 260 3:53:07 07:31 7.98
376 6481 DAVAIN JOACHIM CH VÉT I 52 3:53:15 07:31 7.97
377 6221 JAFARI RACHID CH ELITE HO 261 3:53:20 07:32 7.97
378 6396 RUFENER ODILE CH ELITE FO 44 3:53:36 07:32 7.96
379 8529 VANDERSTRAETEN THOMAS B ELITE HO 262 3:53:37 07:32 7.96
380 6059 BERWEGER PETER CH VÉT II 11 3:53:38 07:32 7.96
381 6176 PICHARD MARC CH ELITE HO 263 3:53:38 07:32 7.96
382 6446 NORDSTRÖM LUKAS S ELITE HO 264 3:53:40 07:32 7.96
383 6417 BENSON BERNADETTE AUS FEMME II 1 3:53:51 07:33 7.95
384 7339 CAMPANA MARCO CH ELITE HO 265 3:53:52 07:33 7.95
385 6157 JACQUARD PASCAL F VÉT I 53 3:53:54 07:33 7.95
386 6123 LAITHIER DORIAN F ELITE HO 266 3:53:57 07:33 7.95
387 6372 LOUVRIER ARNAUD B ELITE HO 267 3:54:09 07:33 7.94
388 7084 MALISOUX LAURENT B VÉT I 54 3:54:15 07:33 7.94
389 7014 DE BRUYNE MARTIN B ELITE HO 268 3:54:15 07:33 7.94
390 7287 PETIT MIGUEL B ELITE HO 269 3:54:39 07:34 7.93
391 6241 MÉAN BAPTISTE CH ELITE HO 270 3:54:49 07:34 7.92
392 7126 SACLEUX DAVID CH ELITE HO 271 3:54:51 07:35 7.92
393 6215 GOGNIAT LORIN CH ELITE HO 272 3:54:59 07:35 7.92
394 7033 FERVENTIN STEPHANE F VÉT II 12 3:55:14 07:35 7.91
395 6516 BACHMANN DORIAN CH ELITE HO 273 3:55:49 07:36 7.89
396 7112 PENLAE BRUNO CH ELITE HO 274 3:56:00 07:37 7.88
397 7196 COSTABLOZ RUDY I ELITE HO 275 3:56:03 07:37 7.88
398 6525 BOURDIN LIONEL CH ELITE HO 276 3:56:05 07:37 7.88
399 8042 DAYER FRANÇOIS-XAVIER CH ELITE HO 277 3:56:08 07:37 7.88
400 7109 PARENT QUENTIN B ELITE HO 278 3:56:15 07:37 7.87
401 144 WANG YIOU USA ELITE FO 45 3:56:17 07:37 7.87
402 7108 OHLY SHANE CH VÉT I 55 3:56:30 07:38 7.86
403 6444 MEYER STEFAN CH ELITE HO 279 3:56:34 07:38 7.86
404 7334 BUFFET CHARLIE F VÉT II 13 3:56:38 07:38 7.86
405 7057 HEFTI NICOLAS CH ELITE HO 280 3:56:44 07:38 7.86
406 6411 WASER JEROME CH VÉT I 56 3:56:50 07:38 7.85
407 6337 MBK STEFAN CH VÉT I 57 3:56:52 07:38 7.85
408 6533 CARRUPT THIERRY CH VÉT I 58 3:57:00 07:39 7.85
409 6367 KALIKAS IOANNIS GR VÉT I 59 3:57:00 07:39 7.85
410 6204 DONNET LÉONARD CH VÉT I 60 3:57:08 07:39 7.84
411 6468 KREMER QUENTIN F ELITE HO 281 3:57:27 07:40 7.83
412 6259 SCHWAB ROMAN CH ELITE HO 282 3:57:32 07:40 7.83
413 6042 BANDELIER MATTHIEU CH ELITE HO 283 3:57:38 07:40 7.83
414 7520 STAUFFER SÉBASTIEN CH ELITE HO 284 3:57:55 07:40 7.82
415 6400 SJÖBERG MIKKO FI ELITE HO 285 3:57:58 07:41 7.82
416 6405 TERRIER ALEXANDRE CH VÉT I 61 3:57:59 07:41 7.82
417 7178 ALZAS DAN F ELITE HO 286 3:58:04 07:41 7.81
418 7034 FOLLONIER STEVE CH ELITE HO 287 3:58:08 07:41 7.81
419 6303 BOURGEOIS WILLIAM F ELITE HO 288 3:58:10 07:41 7.81
420 6492 EGGENBERGER FRÉDÉRIC CH ELITE HO 289 3:58:14 07:41 7.81
421 6473 RAEMY MAXIME CH ELITE HO 290 3:58:27 07:42 7.80
422 6146 BAERISWYL JOËL CH ELITE HO 291 3:58:29 07:42 7.80
423 6333 VARIDEL YANNICK CH ELITE HO 292 3:58:46 07:42 7.79
424 6306 CHARRIÈRE GAËL CH ELITE HO 293 3:58:46 07:42 7.79
425 6413 HOCHMANN MARC CH VÉT I 62 3:58:48 07:42 7.79
426 6432 GASSER-CHERBUIN CLARA CH ELITE FO 46 3:58:56 07:42 7.78
427 6311 DONZÉ CLAUDE CH VÉT II 14 3:59:07 07:43 7.78
428 6370 LAESSER THIERRY CH VÉT II 15 3:59:08 07:43 7.78
429 6238 MOTTIER ALEXIA CH ELITE FO 47 3:59:08 07:43 7.78
430 6435 GIBAUD ANTONY F ELITE HO 294 3:59:11 07:43 7.78
431 6294 SADLER SCOTT GB VÉT I 63 3:59:14 07:43 7.77
432 7321 BOISSON THIBAULT F ELITE HO 295 3:59:15 07:43 7.77
433 6348 BRESSOUD VINCENT CH ELITE HO 296 3:59:17 07:43 7.77
434 6379 METRY OTTO CH VÉT II 16 3:59:19 07:43 7.77
435 6361 GENTILS JOHNNY F VÉT I 64 3:59:23 07:43 7.77
436 6028 CHAMPION GILLES CH ELITE HO 297 3:59:25 07:43 7.77
437 6096 PEER VINCENT CH ELITE HO 298 3:59:27 07:43 7.77
438 6472 PARATTE ANAËL CH ELITE HO 299 3:59:42 07:44 7.76
439 6406 TRAVELLETTI MICHAËL CH ELITE HO 300 3:59:48 07:44 7.76
440 6275 TORNARE GERMAIN CH ELITE HO 301 3:59:51 07:44 7.75
441 6364 HUBERT ERIC CH ELITE HO 302 3:59:57 07:44 7.75
442 6390 PRALONG BENJAMIN CH ELITE HO 303 3:59:59 07:44 7.75
443 7512 SCHUSSELÉ NICOLAS CH ELITE HO 304 4:00:00 07:45 7.75
444 6377 MAINARD SEBASTIEN F ELITE HO 305 4:00:15 07:45 7.74
445 6052 SOGUEL ARCHIBALD CH ELITE HO 306 4:00:19 07:45 7.74
446 104 BRAZEAU JESSICA USA ELITE FO 48 4:00:19 07:45 7.74
447 6193 BRAUCHLI STEVEN CH ELITE HO 307 4:00:22 07:45 7.74
448 6529 BROILLET CHRISTIAN CH VÉT I 65 4:00:30 07:45 7.73
449 6009 JORIS MATHIAS CH ELITE HO 308 4:00:33 07:46 7.73
450 7047 GONZALEZ ALBERTO CH ELITE HO 309 4:00:44 07:46 7.73
451 6342 BIELMANN FRANCIS CH VÉT II 17 4:00:51 07:46 7.72
452 6498 LABAT NICOLAS CH ELITE HO 310 4:00:55 07:46 7.72
453 6502 MANCINI DOMENICO CH VÉT II 18 4:00:55 07:46 7.72
454 6151 BOSSARD NANCHEN SYLVIE CH FEMME I 8 4:00:57 07:46 7.72
455 6454 RUDAZ SIGISMOND CH VÉT II 19 4:00:57 07:46 7.72
456 7021 DOISNEAU ALEXANDRE CH ELITE HO 311 4:01:00 07:46 7.72
457 6368 KERNEN FABRICE F VÉT I 66 4:01:15 07:47 7.71
458 7130 SCHEFFAUER STEFAN A VÉT II 20 4:01:16 07:47 7.71
459 6394 RIVIER BERTRAND CH ELITE HO 312 4:01:43 07:48 7.69
460 6110 CADET CLEMENT F ELITE HO 313 4:01:45 07:48 7.69
461 6091 FLORET THIBAUT F ELITE HO 314 4:01:58 07:48 7.69
462 6412 AELVOET SUTTER PAULINE CH ELITE FO 49 4:02:10 07:49 7.68
463 6266 STOVEN FREDERIC F VÉT I 67 4:02:14 07:49 7.68
464 6389 POCHON FREDERIC CH VÉT I 68 4:02:28 07:49 7.67
465 7134 SIDDALL JOHN GB ELITE HO 315 4:02:33 07:49 7.67
466 6316 GLIGORE CATALIN CH VÉT I 69 4:02:55 07:50 7.66
467 7148 VANHAVERBEKE MATHIAS B VÉT I 70 4:03:02 07:50 7.65
468 6455 SCHMALZ DAVID CH ELITE HO 316 4:03:08 07:51 7.65
469 6254 ROSSI ALBERTO CH ELITE HO 317 4:03:11 07:51 7.65
470 6302 BEHN PATRICK CH ELITE HO 318 4:03:17 07:51 7.65
471 7220 MABILLARD DIDIER CH ELITE HO 319 4:03:25 07:51 7.64
472 7149 VANHOOF MARC B VÉT II 21 4:03:31 07:51 7.64
473 6186 BARBEY VINCENT CH VÉT I 71 4:03:44 07:52 7.63
474 6530 BROSI REMO CH ELITE HO 320 4:03:46 07:52 7.63
475 7041 GAUTHIER PIERRE CH VÉT II 22 4:03:54 07:52 7.63
476 7002 CAUDAL JEAN-VINCENT F ELITE HO 321 4:04:02 07:52 7.62
477 7022 DROUX DANIEL CH VÉT I 72 4:04:15 07:53 7.62
478 6318 HORISBERGER EVELYNE CH ELITE FO 50 4:04:34 07:53 7.61
479 6534 CASSEL JOACHIM GB ELITE HO 322 4:04:39 07:54 7.60
480 6452 RIZZELLI MAXIME F ELITE HO 323 4:04:40 07:54 7.60
481 6074 LAFRANCHI ANDREA CH VÉT I 73 4:04:45 07:54 7.60
482 6231 LOBSTEIN PIERRE CH ELITE HO 324 4:05:05 07:54 7.59
483 6403 TAMBURRINI JOAN CH VÉT I 74 4:05:08 07:54 7.59
484 6449 PIAZZA IVO CH ELITE HO 325 4:05:26 07:55 7.58
485 7363 D'ALMEIDA SÈNAN CH ELITE HO 326 4:05:32 07:55 7.58
486 7242 TAILLARD NINA CH ELITE FO 51 4:05:33 07:55 7.57
487 8362 GONIN CHARLINE CH ELITE FO 52 4:05:35 07:55 7.57
488 6451 REGLI MICHEL CH VÉT II 23 4:05:37 07:55 7.57
489 7161 SAVOY SIMON CH ELITE HO 327 4:05:41 07:56 7.57
490 6309 CORNU LAURA CH ELITE FO 53 4:05:51 07:56 7.57
491 6382 MUNGER XAVIER CH ELITE HO 328 4:05:59 07:56 7.56
492 6401 SOLSONA SERGI CH ELITE HO 329 4:06:09 07:56 7.56
493 7123 ROULET GILLES CH ELITE HO 330 4:06:20 07:57 7.55
494 6319 HUMBERT-DROZ GILLES CH ELITE HO 331 4:06:32 07:57 7.54
495 7352 COLIN THIERRY B VÉT I 75 4:06:33 07:57 7.54
496 6512 ASNARD CHRISTOPHE F VÉT I 76 4:06:38 07:57 7.54
497 7433 LEMAY VINCENT CAN ELITE HO 332 4:06:44 07:58 7.54
498 8271 TROUTOT SÉBASTIEN CH VÉT I 77 4:06:47 07:58 7.54
499 6366 JOYE ALEXANDRE CH VÉT I 78 4:07:01 07:58 7.53
500 7525 THIEBAUT LUDOVIC F ELITE HO 333 4:07:12 07:58 7.52
501 8056 GISCHIG VALENTIN CH ELITE HO 334 4:07:15 07:59 7.52
502 7062 HUNKELER TIMOTHÉE CH ELITE HO 335 4:07:18 07:59 7.52
503 6194 BROUCHIN FLORIAN CH ELITE HO 336 4:07:28 07:59 7.52
504 7114 PICHARD LUCY CH ELITE FO 54 4:07:31 07:59 7.51
505 7204 GREMION GUILLAUME CH ELITE HO 337 4:07:32 07:59 7.51
506 6353 CURIGER ANDREAS CH VÉT II 24 4:07:35 07:59 7.51
507 7218 LYE IAN CH VÉT I 79 4:07:35 07:59 7.51
508 7077 LE COUR GRANDMAISON LOUIS E ELITE HO 338 4:07:36 07:59 7.51
509 6048 MIGNOT THIERRY F ELITE HO 339 4:07:48 08:00 7.51
510 7309 BECK JONATHAN CH ELITE HO 340 4:07:49 08:00 7.51
511 7174 SUSSET ADRIEN CH ELITE HO 341 4:07:57 08:00 7.50
512 7059 HENRY ADRIEN CH ELITE HO 342 4:07:59 08:00 7.50
513 6300 WIDER JÉRÔME CH ELITE HO 343 4:08:04 08:00 7.50
514 6018 BOUDAL IMAD CH ELITE HO 344 4:08:05 08:00 7.50
515 7239 SIFONIOS DAVID CH ELITE HO 345 4:08:08 08:00 7.50
516 7121 RIJS CAROLINE B ELITE FO 55 4:08:11 08:00 7.49
517 8280 LODS PIERRE-ADRIEN F ELITE HO 346 4:08:26 08:01 7.49
518 6531 CABAYÉ PAUL CH ELITE HO 347 4:08:32 08:01 7.48
519 8496 CHRISTINAT KJETILL CH ELITE HO 348 4:08:43 08:01 7.48
520 8438 MARQUES RICARDO CH ELITE HO 349 4:08:58 08:02 7.47
521 7207 HELFENSTEIN MARCEL CH ELITE HO 350 4:09:00 08:02 7.47
522 6298 DE SCHRIJVER JORRE B ELITE HO 351 4:09:17 08:02 7.46
523 6356 DISERENS JEAN CH ELITE HO 352 4:09:22 08:03 7.46
524 8515 PERRAUDIN FLORIAN CH ELITE HO 353 4:09:29 08:03 7.46
525 7524 SUE MARTIN F ELITE HO 354 4:09:34 08:03 7.45
526 6399 SCHÄR MICHAËL CH ELITE HO 355 4:09:43 08:03 7.45
527 6352 CUENOT MARIANNE CH FEMME II 2 4:09:47 08:03 7.45
528 7310 BEECROFT PETER GB ELITE HO 356 4:09:48 08:03 7.45
529 7431 LEDERLIN THOMAS CH VÉT I 80 4:09:50 08:04 7.44
530 8453 SISTI PIERO I VÉT II 25 4:09:50 08:04 7.44
531 7517 SIBER ERIC F ELITE HO 357 4:10:04 08:04 7.44
532 6513 AUJAMES REMI F ELITE HO 358 4:10:10 08:04 7.44
533 6245 PEUCH RAPHAEL CH ELITE HO 359 4:10:19 08:04 7.43
534 6408 VIAL LUDOVIC CH ELITE HO 360 4:10:20 08:05 7.43
535 6363 GILLIÉRON JOËL CH ELITE HO 361 4:10:37 08:05 7.42
536 6478 WÄFLER FRANCIS CH VÉT I 81 4:10:44 08:05 7.42
537 7496 ROSSMANN JEAN-JACQUES F VÉT II 26 4:10:45 08:05 7.42
538 7103 MUGGERIDGE CLINT F ELITE HO 362 4:10:49 08:05 7.42
539 6198 BUONOCORE IVAN CH ELITE HO 363 4:10:51 08:06 7.41
540 8469 MOREL YVES CH VÉT I 82 4:10:56 08:06 7.41
541 6354 DE COURTEN DAMIEN CH ELITE HO 364 4:11:04 08:06 7.41
542 6111 CASTILLE AURÉLIEN F ELITE HO 365 4:11:04 08:06 7.41
543 6427 DUBEY NICOLAS CH VÉT II 27 4:11:07 08:06 7.41
544 7180 ANDREY PATRICK CH VÉT III 5 4:11:08 08:06 7.41
545 7094 MEYLAN XAVIER CH ELITE HO 366 4:11:13 08:06 7.40
546 6410 VOUILLAMOZ ALEXANDRE CH VÉT I 83 4:11:17 08:06 7.40
547 7386 FERRARI LUCA CH VÉT I 84 4:11:26 08:07 7.40
548 7389 FLEURY JÉRÉMY CH ELITE HO 367 4:11:29 08:07 7.40
549 7095 MICHEL ANDREW CH ELITE HO 368 4:11:29 08:07 7.40
550 8388 SEYDOUX CLAIRE CH ELITE FO 56 4:11:30 08:07 7.40
551 7274 PONCELET HUGUES B ELITE HO 369 4:11:37 08:07 7.39
552 7518 SIEGFRIED SAMUEL CH ELITE HO 370 4:11:41 08:07 7.39
553 7536 WATERMAN-EVANS LOUIS GB ELITE HO 371 4:11:45 08:07 7.39
554 8370 LE CAVIL ANTHONY CH ELITE HO 372 4:11:45 08:07 7.39
555 6383 PAPINI DAVIDE CH ELITE HO 373 4:11:51 08:07 7.39
556 7248 VUILLEMIN JÉRÔME CH ELITE HO 374 4:11:52 08:07 7.38
557 6236 MONBARON-JALADE ETIENNE CH VÉT I 85 4:11:59 08:08 7.38
558 6208 DUPONT ALBERT CH ELITE HO 375 4:12:02 08:08 7.38
559 8216 MILNER MICHAEL GB ELITE HO 376 4:12:05 08:08 7.38
560 6443 MARECHAL STEPHANE F VÉT II 28 4:12:19 08:08 7.37
561 6181 SCHMIDT MAURIN CH ELITE HO 377 4:12:20 08:08 7.37
562 6251 RICHARD STÉPHANE F VÉT I 86 4:12:22 08:08 7.37
563 7420 JÄGER RALF CH ELITE HO 378 4:12:27 08:09 7.37
564 8328 ALVAREZ XAVIER CH VÉT I 87 4:12:44 08:09 7.36
565 6425 DIEHL MATHIEU CH ELITE HO 379 4:12:44 08:09 7.36
566 8209 LENFANT PIERRE F ELITE HO 380 4:12:45 08:09 7.36
567 7132 SCHMITT DANNY CH ELITE HO 381 4:12:49 08:09 7.36
568 7133 SEQUEIRA ARTHUR CH ELITE HO 382 4:13:02 08:10 7.35
569 7006 CLEMENT THOMAS F VÉT II 29 4:13:05 08:10 7.35
570 7146 TURBA MARCO I VÉT I 88 4:13:18 08:10 7.34
571 8277 WETTACH MARK CH ELITE HO 383 4:13:27 08:11 7.34
572 7110 PARRAS ROMAIN CH ELITE HO 384 4:13:27 08:11 7.34
573 7380 FARQUET CHRISTIAN CH ELITE HO 385 4:13:31 08:11 7.34
574 6388 PINTO CYRILL CH ELITE HO 386 4:13:31 08:11 7.34
575 8030 BLANC DEPOTEX MARC F ELITE HO 387 4:13:43 08:11 7.33
576 6373 LUGON BASTIEN CH ELITE HO 388 4:13:51 08:11 7.33
577 6461 BERTHOD NICOLAS F VÉT I 89 4:13:55 08:11 7.33
578 7387 FIEVEZ HUGO CH ELITE HO 389 4:13:56 08:11 7.32
579 6347 BOURGEOIS CLÉMENT CH ELITE HO 390 4:14:00 08:12 7.32
580 7177 ALLIMANN MARCEL CH VÉT I 90 4:14:11 08:12 7.32
581 7229 PYTHON VINCENT CH VÉT I 91 4:14:21 08:12 7.31
582 7282 ALTHEER CHARLOTTE F ELITE FO 57 4:14:29 08:13 7.31
583 7254 BESSIRE DENIS CH VÉT I 92 4:14:33 08:13 7.31
584 6499 LINDEN LÉONORE CH ELITE FO 58 4:14:48 08:13 7.30
585 8227 PASCHE TRISTAN CH ELITE HO 391 4:14:55 08:13 7.30
586 7515 SCHYRR BASTIEN CH ELITE HO 392 4:15:05 08:14 7.29
587 7005 CLARK EMILY USA ELITE FO 59 4:15:11 08:14 7.29
588 6040 ZAVESKY FILIP CZ ELITE HO 393 4:15:11 08:14 7.29
589 7398 GRASSI LUCA CH ELITE HO 394 4:15:14 08:14 7.29
590 7332 BUCHWALDER SÉBASTIEN CH ELITE HO 395 4:15:16 08:14 7.29
591 8036 CHARLIER JEAN-FRANÇOIS B ELITE HO 396 4:15:20 08:14 7.28
592 7276 REDARD JEAN-LUC CH ELITE HO 397 4:15:32 08:15 7.28
593 8199 JORGE ALEXANDRE CH VÉT I 93 4:15:38 08:15 7.28
594 6480 KILMARTIN JANE CH FEMME II 3 4:15:38 08:15 7.28
595 7182 BARRELET DAVID CH ELITE HO 398 4:15:46 08:15 7.27
596 6526 BOURGEAUX MATHIEU CH ELITE HO 399 4:15:59 08:15 7.27
597 7025 DUMOLLARD MORGANE CH ELITE FO 60 4:16:04 08:16 7.26
598 7246 VAN DER BIEST MATHIEU F VÉT I 94 4:16:04 08:16 7.26
599 7261 CURRAT MICHAEL CH VÉT I 95 4:16:09 08:16 7.26
600 6434 GIAUQUE CÉDRIC CH ELITE HO 400 4:16:09 08:16 7.26
601 7368 DEBONS FABIEN CH ELITE HO 401 4:16:13 08:16 7.26
602 6440 HERACLIDE DAVID F VÉT II 30 4:16:15 08:16 7.26
603 7101 MORET ES JEAN GILLES F ELITE HO 402 4:16:24 08:16 7.25
604 7217 LUCCHINA JULIEN CH VÉT I 96 4:16:27 08:16 7.25
605 151 AELLIG VANESSA CH ELITE FO 61 4:16:28 08:16 7.25
606 6404 TERCIER ELODIE CH ELITE FO 62 4:16:29 08:16 7.25
607 7019 DELAFONTAINE HUGO CH ELITE HO 403 4:16:30 08:16 7.25
608 7085 MARRO BRUNO CH ELITE HO 404 4:16:41 08:17 7.25
609 7085 MARRO BRUNO CH ELITE HO 405 4:16:41 08:17 7.25
610 6482 ZANCHI THIERRY CH ELITE HO 406 4:16:46 08:17 7.24
611 6359 FORSYTH SCOTT CH VÉT I 97 4:17:01 08:17 7.24
612 8066 KEMPF JEAN-CHRISTOPHE F ELITE HO 407 4:17:01 08:17 7.24
613 7107 OESTER CHRISTOPHE CH ELITE HO 408 4:17:05 08:18 7.24
614 7399 GRÉTRY JULIE B ELITE FO 63 4:17:14 08:18 7.23
615 7225 MELIN THIBAULT B ELITE HO 409 4:17:16 08:18 7.23
616 7408 JACQUET NICOLAS F ELITE HO 410 4:17:17 08:18 7.23
617 8078 ODERMATT DOMINIC CH ELITE HO 411 4:17:18 08:18 7.23
618 7141 STÄHELI PASCAL CH ELITE HO 412 4:17:25 08:18 7.23
619 7157 ZOBRIST FELIX CH ELITE HO 413 4:17:25 08:18 7.23
620 6514 BACHMANN ANDRIN GB VÉT I 98 4:17:28 08:18 7.22
621 6328 PUTHON ANTHONY F ELITE HO 414 4:17:29 08:18 7.22
622 7291 SOVRANO ADRIEN CH ELITE HO 415 4:17:31 08:18 7.22
623 7145 TORFS PIETER B VÉT I 99 4:17:44 08:19 7.22
624 7023 DUBOIS FABRICE F ELITE HO 416 4:17:50 08:19 7.21
625 7151 VANZINI ELENA CH ELITE FO 64 4:17:52 08:19 7.21
626 7476 PICARD SEBASTIEN F VÉT I 100 4:17:52 08:19 7.21
627 7042 GAUTHIER ROMANE CH ELITE FO 65 4:17:55 08:19 7.21
628 8034 BUFFA LEONARDO I ELITE HO 417 4:18:01 08:19 7.21
629 6127 MARÉCHAL ANTHONY B ELITE HO 418 4:18:04 08:19 7.21
630 6257 SCHALLER STÉPHANE CH ELITE HO 419 4:18:07 08:20 7.21
631 6217 GUISAN THIBAUD CH ELITE HO 420 4:18:09 08:20 7.21
632 6521 BIGLER CHRISTOPHE CH ELITE HO 421 4:18:15 08:20 7.20
633 8194 JAMBON SYLVAIN F VÉT I 101 4:18:18 08:20 7.20
634 6506 PERREN KARIN CH FEMME I 9 4:18:19 08:20 7.20
635 8001 WIDMAYER SACHA CH ELITE HO 422 4:18:21 08:20 7.20
636 6326 PELLATON CYRIL CH VÉT I 102 4:18:23 08:20 7.20
637 8501 DEREME JULIEN CH ELITE HO 423 4:18:27 08:20 7.20
638 7179 AMACKER PASCAL CH ELITE HO 424 4:18:31 08:20 7.19
639 7039 GAREILLA ALEXANDRE CH ELITE HO 425 4:18:35 08:20 7.19
640 7234 ROSZKO STEVEN USA VÉT I 103 4:18:41 08:21 7.19
641 6365 JAQUET MATHILDE CH ELITE FO 66 4:18:41 08:21 7.19
642 7080 LIKEMAN MARK GB VÉT I 104 4:18:45 08:21 7.19
643 6339 ANDREOLI LIVIO CH ELITE HO 426 4:18:49 08:21 7.19
644 6252 RODRIGUEZ YANN F ELITE HO 427 4:18:52 08:21 7.19
645 7483 PYTHON BENOIT CH ELITE HO 428 4:19:01 08:21 7.18
646 8326 TISSOT VIRGINIE CH ELITE FO 67 4:19:18 08:22 7.17
647 6264 SPINEUX FRANÇOIS B ELITE HO 429 4:19:20 08:22 7.17
648 8131 BERTHOLLET THIBAUD CH ELITE HO 430 4:19:31 08:22 7.17
649 6416 ACKER ANTOINE CH ELITE HO 431 4:19:34 08:22 7.17
650 7061 HUIN OLIVIER CH ELITE HO 432 4:19:38 08:23 7.16
651 6279 VASSANT CÉDRIC CH ELITE HO 433 4:19:40 08:23 7.16
652 7473 PERROUD DANIEL CH VÉT I 105 4:19:59 08:23 7.15
653 6200 BURRELL KRISTIN USA FEMME I 10 4:20:10 08:24 7.15
654 7421 KLAUER UWE D VÉT II 31 4:20:16 08:24 7.15
655 7215 LIMAL BENJAMIN CH VÉT I 106 4:20:20 08:24 7.14
656 6341 BASIC ELIF CH ELITE FO 68 4:20:21 08:24 7.14
657 6384 PELE MARION F ELITE FO 69 4:20:29 08:24 7.14
658 7528 TINGUELY MARC CH ELITE HO 434 4:20:30 08:24 7.14
659 6484 SAVOYE DOMINIQUE CH ELITE HO 435 4:20:32 08:24 7.14
660 7351 COLCIAGO LUCIA I FEMME I 11 4:20:41 08:25 7.14
661 8498 CRESCENTINI FABIO D ELITE HO 436 4:20:49 08:25 7.13
662 8247 SAGARNA CHRISTOPHE CH ELITE HO 437 4:20:53 08:25 7.13
663 7245 TORCHEBOEUF NICOLAS CH ELITE HO 438 4:21:22 08:26 7.12
664 6187 BARONIAN MICHEL F VÉT II 32 4:21:23 08:26 7.12
665 7359 COULIN SAMUEL CH ELITE HO 439 4:21:32 08:26 7.11
666 7493 ROBYR SÉBASTIEN CH VÉT I 107 4:21:57 08:27 7.10
667 7370 DELISLE JULIEN CH ELITE HO 440 4:22:03 08:27 7.10
668 6488 BERTHOLEY MARTIN F ELITE HO 441 4:22:05 08:27 7.10
669 8005 ZAHND JÉRÉMY CH ELITE HO 442 4:22:08 08:27 7.10
670 7235 SCHAENDEL JULIEN F ELITE HO 443 4:22:17 08:28 7.09
671 8233 PICCI VALENTIN F ELITE HO 444 4:22:23 08:28 7.09
672 8053 GAIMARD JOHAN CH ELITE HO 445 4:22:24 08:28 7.09
673 7298 ALLEGRA GAETAN CH ELITE HO 446 4:22:26 08:28 7.09
674 7200 EPINEY FLORENCE CH ELITE FO 70 4:22:32 08:28 7.08
675 7446 MARTIN ALAIN CH ELITE HO 447 4:22:33 08:28 7.08
676 7115 PITTET CÉLINE CH ELITE FO 71 4:22:33 08:28 7.08
677 7088 MATTEINI FEDERICO CH ELITE HO 448 4:22:34 08:28 7.08
678 6210 FAWER RÉMI CH ELITE HO 449 4:22:35 08:28 7.08
679 7323 BONFANTI LUCA I VÉT I 108 4:22:42 08:28 7.08
680 7488 RIBI CHRISTOPH CH VÉT II 33 4:22:48 08:29 7.08
681 8108 FABRE JULIEN F ELITE HO 450 4:22:56 08:29 7.07
682 7422 KOCH BERNHARD D VÉT I 109 4:22:57 08:29 7.07
683 7038 GARDAZ VALENTIN CH ELITE HO 451 4:23:54 08:31 7.05
684 8096 LABED LUC F ELITE HO 452 4:24:05 08:31 7.04
685 8010 LONFAT VALENTIN CH ELITE HO 453 4:24:07 08:31 7.04
686 7268 LEUENBERGER PASCAL CH VÉT I 110 4:24:13 08:31 7.04
687 7052 GUERRA VIGO AURELIO CH VÉT I 111 4:24:15 08:31 7.04
688 6510 ANDERSSON MARCUS CH ELITE HO 454 4:24:19 08:32 7.04
689 7138 SPINEUX ADRIEN B ELITE HO 455 4:24:27 08:32 7.03
690 7083 MAIBACH JOEL CH ELITE HO 456 4:24:31 08:32 7.03
691 6433 GENDRE QUENTIN CH ELITE HO 457 4:24:40 08:32 7.03
692 7031 FANTI GRÉGOIRE CH VÉT I 112 4:24:41 08:32 7.03
693 7504 SANTIAGO MANUEL CH VÉT II 34 4:24:43 08:32 7.03
694 7295 LÜTHI MARTIN CH VÉT I 113 4:24:48 08:33 7.02
695 7128 SANTIAGO CARLOS CH ELITE HO 458 4:24:48 08:33 7.02
696 6450 RAVOIRE JÉRÉMY CH ELITE HO 459 4:25:00 08:33 7.02
697 6494 GAMPER ROGER CH VÉT I 114 4:25:03 08:33 7.02
698 7078 LEONARDI UGO CH VÉT I 115 4:25:03 08:33 7.02
699 7281 VOEGELI GUILLAUME CH ELITE HO 460 4:25:10 08:33 7.01
700 7419 JUST SIMON AUS VÉT I 116 4:25:18 08:33 7.01
701 6191 BOSCO JEAN-LAURENT CH VÉT I 117 4:25:20 08:34 7.01
702 7270 MARCHAND JENNIFER CH ELITE FO 72 4:25:20 08:34 7.01
703 7460 MÉRILLAT CHRISTOPHE CH VÉT I 118 4:25:22 08:34 7.01
704 8019 SAWAYA MARC F ELITE HO 461 4:25:27 08:34 7.01
705 8037 CHARRIÈRE DIMITRI CH ELITE HO 462 4:25:31 08:34 7.01
706 7198 DE LA BOURDONNAYE ELOI F ELITE HO 463 4:25:40 08:34 7.00
707 7300 ANDANY SANTIAGO CH ELITE HO 464 4:25:43 08:34 7.00
708 8521 RICAUD GUILLAUME F ELITE HO 465 4:25:43 08:34 7.00
709 7106 NOON SOPHIE GB ELITE FO 73 4:25:44 08:34 7.00
710 7299 ANDANY JOAQUIM CH ELITE HO 466 4:25:45 08:34 7.00
711 7018 DEBATTY HERVÉ B VÉT I 119 4:25:45 08:34 7.00
712 8043 DE BRUYNE GUILLAUME B ELITE HO 467 4:25:50 08:35 7.00
713 6459 BRUNOTT KLASINA CH ELITE FO 74 4:25:53 08:35 7.00
714 6491 CUSTOT SÉBASTIEN CH ELITE HO 468 4:25:54 08:35 7.00
715 7434 LEWIS JOHN CH VÉT I 120 4:25:55 08:35 6.99
716 6464 FROIDEVAUX ALEXANDRE CH VÉT I 121 4:25:57 08:35 6.99
717 7510 SCHRAGO PHILIPPE CH VÉT I 122 4:26:01 08:35 6.99
718 6203 DE ALMEIDA RICARDO CH ELITE HO 469 4:26:05 08:35 6.99
719 7054 HABERKORN MATTHIAS CH ELITE HO 470 4:26:05 08:35 6.99
720 8038 CHRISTAIN HÉLÈNE F ELITE FO 75 4:26:08 08:35 6.99
721 7439 LOPEZ GONZALEZ JAVIER E VÉT I 123 4:26:12 08:35 6.99
722 7404 HERMANT RÉMI F ELITE HO 471 4:26:24 08:36 6.98
723 8477 ADAM DAVID F VÉT I 124 4:26:25 08:36 6.98
724 6253 ROHRER JONATHAN CH ELITE HO 472 4:26:26 08:36 6.98
725 7211 HUNKELER MICHEL CH VÉT II 35 4:26:29 08:36 6.98
726 8076 MONTANDON FABRICE CH ELITE HO 473 4:26:42 08:36 6.97
727 8152 CONSTANTIN MARIE CH ELITE FO 76 4:26:45 08:36 6.97
728 7466 OETIKER PHILIPPE CH VÉT I 125 4:26:46 08:36 6.97
729 7017 DE SOUSA JOSE LUIS CH ELITE HO 474 4:26:58 08:37 6.97
730 6380 MOREIRA SERGIO CH VÉT II 36 4:27:04 08:37 6.96
731 7415 JOLIVET CÉDRIC CH ELITE HO 475 4:27:07 08:37 6.96
732 8502 FRANCO DANIELE I VÉT I 126 4:27:09 08:37 6.96
733 6263 SPENCE PETER CH ELITE HO 476 4:27:15 08:37 6.96
734 6429 FRANZ MAXENCE CH ELITE HO 477 4:27:15 08:37 6.96
735 6541 DIDIER YOANN CH ELITE HO 478 4:27:20 08:37 6.96
736 7053 GUHUR KEVIN F ELITE HO 479 4:27:26 08:38 6.96
737 6248 RAMOS FRANCISCO CH ELITE HO 480 4:27:29 08:38 6.95
738 6274 TISSIRES MAXIME CH ELITE HO 481 4:27:34 08:38 6.95
739 7314 BERRY JOSEPH GB ELITE HO 482 4:27:41 08:38 6.95
740 7391 GARBANI NERINI IVART CH VÉT I 127 4:27:52 08:38 6.94
741 6431 GARD STEPHANE CH VÉT II 37 4:27:52 08:38 6.94
742 8062 JAVET ROLAND CH VÉT I 128 4:27:59 08:39 6.94
743 7369 DELHASSE FREDERIC B ELITE HO 483 4:28:02 08:39 6.94
744 7411 JASPAR JULIEN B ELITE HO 484 4:28:02 08:39 6.94
745 7324 BONNET PIERRE CH ELITE HO 485 4:28:11 08:39 6.94
746 7521 STEISEL LANCELOT B ELITE HO 486 4:28:21 08:39 6.93
747 8081 PELET FLORIAN CH ELITE HO 487 4:28:27 08:40 6.93
748 7481 PONS JORDI F VÉT I 129 4:28:29 08:40 6.93
749 7259 BOFFANO MARC-OLIVIER CH VÉT I 130 4:28:29 08:40 6.93
750 8532 VERICHON DAMIEN D ELITE HO 488 4:28:32 08:40 6.93
751 7417 JORNOD MARINE CH ELITE FO 77 4:28:34 08:40 6.93
752 8190 HASENBÖHLER PATRICK CH VÉT II 38 4:28:38 08:40 6.92
753 6536 CASTAGNETTI CHRISTOPHE REU VÉT II 39 4:28:43 08:40 6.92
754 8049 FLÜKIGER SIMON CH ELITE HO 489 4:28:57 08:41 6.92
755 7350 CLÉMENT SYLVAIN CH ELITE HO 490 4:28:58 08:41 6.92
756 7202 GENOUD CORINNE CH FEMME I 12 4:29:12 08:41 6.91
757 6105 BAKKER MICHIEL GB VÉT II 40 4:29:13 08:41 6.91
758 8294 CAMPANA PASCAL CH VÉT I 131 4:29:20 08:41 6.91
759 6235 MERIGNAT BRANDON F ELITE HO 491 4:29:29 08:42 6.90
760 8080 OTT ARNAUD F ELITE HO 492 4:29:30 08:42 6.90
761 8224 OSTERWALDER SILVIA CH FEMME I 13 4:29:31 08:42 6.90
762 7454 MOLINIER ANTOINE F ELITE HO 493 4:29:32 08:42 6.90
763 7024 DUBRAY ANTOINE F ELITE HO 494 4:29:36 08:42 6.90
764 7027 DÉBIEUX GUILLAUME CH ELITE HO 495 4:29:43 08:42 6.90
765 7226 MOREILLON DAVID CH VÉT I 132 4:29:52 08:42 6.89
766 8313 SCHNEGG NAÏM CH ELITE HO 496 4:29:53 08:42 6.89
767 7155 ZIGERLIG DANIEL CH ELITE HO 497 4:29:54 08:42 6.89
768 7071 KREBS DIDIER F VÉT II 41 4:30:07 08:43 6.89
769 6199 BURNAND ALEXANDRE CH ELITE HO 498 4:30:22 08:43 6.88
770 7231 REVET VALENTIN CH ELITE HO 499 4:30:28 08:43 6.88
771 6496 GOMEZ ROJAS ALBERTO E VÉT I 133 4:30:35 08:44 6.87
772 7175 AGUETTAZ CHRISTOPHE F VÉT II 42 4:30:35 08:44 6.87
773 7328 BRALLA SAMUEL CH VÉT I 134 4:30:36 08:44 6.87
774 7050 GOURDOU-LABOURDETTE GRÉGORY CH ELITE HO 500 4:30:36 08:44 6.87
775 7534 VIBERT NATHAN CH ELITE HO 501 4:30:37 08:44 6.87
776 7485 RAUBER KATJA CH ELITE FO 78 4:30:37 08:44 6.87
777 7020 DELORME LAURENT CH VÉT II 43 4:30:46 08:44 6.87
778 7162 ASTORI PATRICK CH ELITE HO 502 4:30:48 08:44 6.87
779 7205 GRILO DIANA CH ELITE FO 79 4:30:49 08:44 6.87
780 8138 BROOKS LISBETH USA ELITE FO 80 4:31:11 08:45 6.86
781 7406 HODGKINSON SARAH F ELITE FO 81 4:31:17 08:45 6.86
782 8067 KNEUSS ALAIN CH VÉT I 135 4:31:24 08:45 6.85
783 8507 HURRELL ALEX CH ELITE HO 503 4:31:25 08:45 6.85
784 6329 RESPINGUET FLAVIEN CH ELITE HO 504 4:31:28 08:45 6.85
785 7228 PROSSER CLAIRE GB ELITE FO 82 4:31:38 08:46 6.85
786 7337 CALAME BRICE CH ELITE HO 505 4:31:51 08:46 6.84
787 7410 JAMART GUILLAUME B ELITE HO 506 4:31:56 08:46 6.84
788 8369 LE BAIL MAXIME F ELITE HO 507 4:32:04 08:47 6.84
789 7131 SCHMEHL ERIC USA VÉT I 136 4:32:13 08:47 6.83
790 7046 GIRARDIN JEREMY CH ELITE HO 508 4:32:19 08:47 6.83
791 8492 BERCHTOLD GEROLD CH ELITE HO 509 4:32:29 08:47 6.83
792 6423 DE KONINCK MARIO B VÉT I 137 4:32:45 08:48 6.82
793 8074 MAYOR LADINA CH ELITE FO 83 4:33:02 08:48 6.81
794 8449 RANCANO FRANCISCO CH VÉT I 138 4:33:05 08:49 6.81
795 7070 KOOREVAAR RON NL VÉT III 6 4:33:09 08:49 6.81
796 6069 FLEET ANDREW GB ELITE HO 510 4:33:12 08:49 6.81
797 7192 CLAES XAVIER B ELITE HO 511 4:33:26 08:49 6.80
798 8276 WEGMÜLLER THOMAS CH VÉT I 139 4:33:29 08:49 6.80
799 6448 OLLARD MATTHIAS CH ELITE HO 512 4:33:47 08:50 6.79
800 7424 KUNZ ALEXANDRE CH ELITE HO 513 4:33:49 08:50 6.79
801 6321 INGRAM MICHAEL CH ELITE HO 514 4:33:58 08:50 6.79
802 8196 JAQUET YANN CH ELITE HO 515 4:34:04 08:50 6.79
803 8046 DELSOULLIER CLAIRE CH ELITE FO 84 4:34:05 08:50 6.79
804 7238 SELLA RICCARDO CH VÉT I 140 4:34:11 08:51 6.78
805 6345 BOSCHUNG ALAIN CH VÉT I 141 4:34:13 08:51 6.78
806 7075 LABALME BAPTISTE F ELITE HO 516 4:34:15 08:51 6.78
807 8259 SERULLA MARC CH ELITE HO 517 4:34:21 08:51 6.78
808 7012 CURRAT ALAIN CH ELITE HO 518 4:34:27 08:51 6.78
809 8266 STRUB JEREMY F ELITE HO 519 4:34:42 08:52 6.77
810 7477 PIGUET YANN CH ELITE HO 520 4:34:50 08:52 6.77
811 7294 COSSY CHRISTOPHE CH ELITE HO 521 4:34:52 08:52 6.77
812 7414 JENNY THOMAS CH ELITE HO 522 4:34:58 08:52 6.76
813 8230 PAZZOLA MATTIA I VÉT I 142 4:35:05 08:52 6.76
814 7137 SOUTHGATE CARL GB VÉT I 143 4:35:09 08:53 6.76
815 7030 ETTER NATHANAËL CH ELITE HO 523 4:35:12 08:53 6.76
816 6156 HÉDREUX GILLES F VÉT I 144 4:35:19 08:53 6.76
817 8279 BEATI STEVE - VÉT I 145 4:35:20 08:53 6.76
818 7394 GERMANN CHRISTIAN CH VÉT III 7 4:35:36 08:53 6.75
819 7064 IRUS JOHAN CH ELITE HO 524 4:35:39 08:54 6.75
820 6049 MUFFAT MAXIME F ELITE HO 525 4:35:41 08:54 6.75
821 7313 BERNASCONI CÉLINE CH ELITE FO 85 4:35:49 08:54 6.74
822 7273 NOIRAT SYLVAIN CH ELITE HO 526 4:35:50 08:54 6.74
823 7265 GUSCETTI ADRIANO CH VÉT III 8 4:36:32 08:55 6.73
824 7066 JACOBS PIET B VÉT II 44 4:36:39 08:55 6.72
825 7118 RATTEZ BRICE CH ELITE HO 527 4:36:40 08:55 6.72
826 7116 POIGNANT NICOLAS CH ELITE HO 528 4:36:47 08:56 6.72
827 6460 ALEMU DAWIT CH ELITE HO 529 4:37:04 08:56 6.71
828 7098 MIRB NICOLAS F ELITE HO 530 4:37:10 08:56 6.71
829 8272 TRUFFER PHILIPPE CH VÉT II 45 4:37:21 08:57 6.71
830 7331 BROUWERSHAVEN ARNOUT CH VÉT I 146 4:37:26 08:57 6.70
831 8291 BARBEITO FERNANDEZ DAVID CH ELITE HO 531 4:37:36 08:57 6.70
832 6369 KETTERER NICOLAS CH ELITE HO 532 4:37:43 08:58 6.70
833 8039 CLADY JULIE CH ELITE FO 86 4:37:43 08:58 6.70
834 7035 FONTAINE ERIC F ELITE HO 533 4:37:55 08:58 6.69
835 8017 JONES JAMES D ELITE HO 534 4:37:59 08:58 6.69
836 7212 ISMAIL NIVEEN USA ELITE FO 87 4:38:12 08:58 6.69
837 7382 FAVRE DAMIEN GB ELITE HO 535 4:38:20 08:59 6.68
838 7040 GASSMANN JONATHAN CH ELITE HO 536 4:38:24 08:59 6.68
839 7266 JUNGHANS MARTIN CH VÉT II 46 4:38:25 08:59 6.68
840 8044 DE GREVE BEN B ELITE HO 537 4:38:28 08:59 6.68
841 8258 SCIACCA FRÉDÉRIC CH ELITE HO 538 4:38:32 08:59 6.68
842 8063 JOKISCH RAINER D VÉT III 9 4:38:37 08:59 6.68
843 7092 MERCIER JEAN-FRANÇOIS F ELITE HO 539 4:38:41 08:59 6.67
844 7441 LUST DAMIEN B VÉT I 147 4:38:45 09:00 6.67
845 8531 VAUCLAIR ALIX CH FEMME I 14 4:38:55 09:00 6.67
846 7317 BISCHOFF MARC CH VÉT II 47 4:38:56 09:00 6.67
847 6527 BOURGUINET DAMIEN CH ELITE HO 540 4:39:00 09:00 6.67
848 6178 CUCHE JONAS CH ELITE HO 541 4:39:05 09:00 6.66
849 7051 GRAND DIDIER CH VÉT I 148 4:39:14 09:00 6.66
850 8245 ROYEN BERNARD B VÉT II 48 4:39:15 09:00 6.66
851 8003 WONG SIJIAN CH ELITE HO 542 4:39:28 09:01 6.66
852 8083 PELLETIER BERNARD CH VÉT II 49 4:39:28 09:01 6.66
853 7375 DUCRET ISABELLE CH FEMME II 4 4:39:30 09:01 6.65
854 8140 CARRARO LAURENT CH VÉT I 149 4:39:38 09:01 6.65
855 7486 REBER BEAT CH VÉT II 50 4:39:39 09:01 6.65
856 6351 CRUCHAUD YVAN CH VÉT II 51 4:40:04 09:02 6.64
857 6503 MARCHAND GREGORY CH ELITE HO 543 4:40:04 09:02 6.64
858 7191 CHATELAIN NICOLE CH FEMME II 5 4:40:11 09:02 6.64
859 7271 MARCHAND KELLY CH ELITE FO 88 4:40:29 09:03 6.63
860 7087 MATHEZ FREDY CH ELITE HO 544 4:40:32 09:03 6.63
861 6445 MORARD THOMAS CH ELITE HO 545 4:40:37 09:03 6.63
862 8512 LÜTHY RAPHAEL CH VÉT II 52 4:40:55 09:04 6.62
863 7459 MUJANOVIC ELVIR CH VÉT I 150 4:41:00 09:04 6.62
864 6234 MATTHEY EMANUEL CH VÉT I 151 4:41:01 09:04 6.62
865 7330 BROILLET STEVEN CH ELITE HO 546 4:41:06 09:04 6.62
866 7029 ESTIEVENART SÉBASTIEN CH ELITE HO 547 4:41:11 09:04 6.61
867 7405 HILTPOLD SERGE CH VÉT I 152 4:41:13 09:04 6.61
868 8251 SCHAFROH MAËL CH ELITE HO 548 4:41:16 09:04 6.61
869 6479 GOODSWEN PHILIP CH VÉT II 53 4:41:17 09:04 6.61
870 8217 MONNERAT JACQUES CH VÉT I 153 4:41:21 09:05 6.61
871 6213 GAZAN THIERRY F VÉT III 10 4:41:29 09:05 6.61
872 8088 ROUSSEL ANNE-SOPHIE F FEMME I 15 4:41:36 09:05 6.61
873 6509 ABRAMOWSKI PIERRE CH VÉT I 154 4:41:39 09:05 6.60
874 7165 CHARLIER GILLES CH ELITE HO 549 4:41:40 09:05 6.60
875 8192 HAZEN ALEXANDER CH ELITE HO 550 4:41:51 09:06 6.60
876 7143 TAURISSON CLAIRE F FEMME I 16 4:41:55 09:06 6.60
877 7188 CARNEGIE DEREK CH ELITE HO 551 4:41:57 09:06 6.60
878 8530 VANHAEREN BART B VÉT II 54 4:42:06 09:06 6.59
879 6515 BACHMANN DAMIEN CH ELITE HO 552 4:42:06 09:06 6.59
880 7241 STARKENMANN VICTOR CH ELITE HO 553 4:42:06 09:06 6.59
881 7048 GORIN BRIEUC CH ELITE HO 554 4:42:10 09:06 6.59
882 7269 LISTER-BOSCHUNG KAREN CH ELITE FO 89 4:42:12 09:06 6.59
883 7249 ZEN-RUFFINEN GUILLAUME CH ELITE HO 555 4:42:14 09:06 6.59
884 6229 LAWRANCE RACHAEL GB FEMME I 17 4:42:17 09:06 6.59
885 8041 CORBOZ JEAN-BAPTISTE CH ELITE HO 556 4:42:18 09:06 6.59
886 6202 COUTAREL JÉRÔME F VÉT I 155 4:42:23 09:07 6.59
887 7283 BLACK CHRISTOPHER CH VÉT II 55 4:42:24 09:07 6.59
888 7058 HENNUY VALENTIN B ELITE HO 557 4:42:27 09:07 6.59
889 7222 MATHEZ FRÉDÉRIC CH ELITE HO 558 4:42:28 09:07 6.58
890 7413 JEANNERAT GREGORY CH ELITE HO 559 4:42:33 09:07 6.58
891 7381 FASEL-MONNIER LAURE CH ELITE FO 90 4:42:36 09:07 6.58
892 6283 WATTS SAM GB ELITE HO 560 4:42:39 09:07 6.58
893 7280 VANEY FLORIAN CH ELITE HO 561 4:42:40 09:07 6.58
894 7069 KOHLI MARIE CH ELITE FO 91 4:42:58 09:08 6.57
895 7091 MERCIER CLÉMENT F ELITE HO 562 4:42:59 09:08 6.57
896 7357 COTTET BERNARD CH VÉT II 56 4:42:59 09:08 6.57
897 8340 BIRD KATIE F ELITE FO 92 4:43:03 09:08 6.57
898 7465 NUSSBAUMER EMILIE CH ELITE FO 93 4:43:17 09:08 6.57
899 7186 BUCHI FRANCIS CH ELITE HO 563 4:43:18 09:08 6.57
900 6195 BROWN GRAHAM GB VÉT II 57 4:43:32 09:09 6.56
901 6323 NGCONGO PHUMLANI RSA ELITE HO 564 4:43:48 09:09 6.55
902 6312 FISCHER PHILIPP CH ELITE HO 565 4:43:49 09:09 6.55
903 7236 SCHROTT ALEXANDER CH VÉT II 58 4:43:52 09:09 6.55
904 7319 BLANCHART NICOLAS B ELITE HO 566 4:44:00 09:10 6.55
905 7318 BITTEL JAN CH VÉT I 156 4:44:04 09:10 6.55
906 7492 ROBIN JEAN-MARIE F VÉT II 59 4:44:15 09:10 6.54
907 7164 CHAMPENDAL LIONEL CH VÉT I 157 4:44:22 09:10 6.54
908 6371 LERDA BAPTISTE F ELITE HO 567 4:44:29 09:11 6.54
909 8527 TESTUZ CHRISTIAN CH VÉT I 158 4:44:47 09:11 6.53
910 7206 GUILLEN DAVID CH VÉT I 159 4:44:50 09:11 6.53
911 8297 DOUGOUD THIERRY-EMMANUEL CH VÉT I 160 4:44:54 09:11 6.53
912 7190 CHATAGNY VALENTIN CH ELITE HO 568 4:44:54 09:11 6.53
913 8146 CHIESA FEDERICO CH ELITE HO 569 4:44:54 09:11 6.53
914 6470 MOWATT CARL GB VÉT II 60 4:45:02 09:12 6.53
915 8303 LE THIEC VINCENT F VÉT I 161 4:45:07 09:12 6.52
916 7199 DOUGHTY DAVIS GREGORY CH VÉT III 11 4:45:08 09:12 6.52
917 8072 MARCOLI PAOLO CH VÉT I 162 4:45:11 09:12 6.52
918 7388 FISCHER MARC CH VÉT I 163 4:45:11 09:12 6.52
919 8484 BEHE STEPHAN F VÉT I 164 4:45:13 09:12 6.52
920 7176 AGUETTAZ HUGO F ELITE HO 570 4:45:16 09:12 6.52
921 7216 LONG YANNICK CH ELITE HO 571 4:45:21 09:12 6.52
922 8183 GHEORGHE RAZVAN CH VÉT I 165 4:45:28 09:13 6.52
923 6226 KAISER JULIEN CH ELITE HO 572 4:45:38 09:13 6.51
924 7102 MORGANTINI MATTIA CH ELITE HO 573 4:45:41 09:13 6.51
925 7011 CRETTON SEBASTIEN CH VÉT I 166 4:45:43 09:13 6.51
926 7329 BRODARD JULIEN CH ELITE HO 574 4:45:52 09:13 6.51
927 7346 CHAMBOVAY ELODIE CH ELITE FO 94 4:45:52 09:13 6.51
928 8447 RAMCHURN BECK KETSIA CH ELITE FO 95 4:45:56 09:13 6.51
929 7214 LEINERS LUC B ELITE HO 575 4:45:58 09:13 6.50
930 8091 THEUX ANDRÉ CH VÉT III 12 4:46:01 09:14 6.50
931 7338 CAMBONIE PIERRE F ELITE HO 576 4:46:02 09:14 6.50
932 6418 BIANCHI GABRIELE I VÉT I 167 4:46:04 09:14 6.50
933 7279 STADELMANN MARCUS CH VÉT II 61 4:46:09 09:14 6.50
934 8098 ROSSEY NICOLAS B ELITE HO 577 4:46:19 09:14 6.50
935 6477 WAHL PASCALE CH ELITE FO 96 4:46:28 09:14 6.49
936 8368 KÜNDIG ROMAIN CH ELITE HO 578 4:46:33 09:15 6.49
937 6101 SOUSTELLE REMI F ELITE HO 579 4:46:35 09:15 6.49
938 8444 NASIROV BERKO CH VÉT I 168 4:46:38 09:15 6.49
939 6242 MÜLLER DANIEL CH ELITE HO 580 4:46:51 09:15 6.48
940 6540 RESS SASCHA CH VÉT I 169 4:46:52 09:15 6.48
941 6060 BILLINGTON KARL GB ELITE HO 581 4:46:54 09:15 6.48
942 8185 GIZZI DOROTHÉE F FEMME II 6 4:47:02 09:16 6.48
943 7490 RINSOZ LUCA CH ELITE HO 582 4:47:08 09:16 6.48
944 8253 SCHMITHAUSEN EVA CH ELITE FO 97 4:47:09 09:16 6.48
945 7257 BARATAY DOMINIQUE F ELITE HO 583 4:47:09 09:16 6.48
946 8124 ANTILLE EMERAUDE CH ELITE FO 98 4:47:12 09:16 6.48
947 8142 CAVIN BAPTISTE CH ELITE HO 584 4:47:16 09:16 6.47
948 8014 DOGLIOTTI MARCO CH VÉT II 62 4:47:18 09:16 6.47
949 7195 COLANGELO CHRISTEL CH FEMME I 18 4:47:21 09:16 6.47
950 6022 ROSA GMEZ DANIEL USA VÉT II 63 4:47:32 09:17 6.47
951 8092 WIDMER-JEAN NATHALIE CH ELITE FO 99 4:47:36 09:17 6.47
952 7362 CUNNINGHAM PETER CH VÉT I 170 4:47:38 09:17 6.47
953 7074 LAATIKI ALI F VÉT I 171 4:47:48 09:17 6.46
954 7392 GARCÍA PULIDO JOSÉ DAVID E ELITE HO 585 4:47:57 09:17 6.46
955 7527 THULLEN OSCAR CH ELITE HO 586 4:48:02 09:17 6.46
956 8064 JONCKHEERE FRANÇOIS-XAVIER B ELITE HO 587 4:48:11 09:18 6.45
957 7327 BOVIER CYRIL CH VÉT I 172 4:48:19 09:18 6.45
958 6375 LUTZ VINCENT F ELITE HO 588 4:48:23 09:18 6.45
959 8219 MÉROZ ROMANE F ELITE FO 100 4:48:23 09:18 6.45
960 8002 WILHELM ELISE F ELITE FO 101 4:48:24 09:18 6.45
961 7135 SOLA CEDRIC F VÉT I 173 4:48:28 09:18 6.45
962 8033 BOVIER YANNICK CH VÉT I 174 4:48:29 09:18 6.45
963 8210 LENFANT SYLVAIN F ELITE HO 589 4:48:30 09:18 6.45
964 7189 CHAIGNAT THIERRY CH VÉT I 175 4:48:31 09:18 6.45
965 7343 CARR JAMES CH ELITE HO 590 4:48:44 09:19 6.44
966 8414 HERZI TAF CH VÉT II 64 4:48:51 09:19 6.44
967 6310 DE WILDE MIEKE B FEMME I 19 4:48:51 09:19 6.44
968 7026 DUSS STEFFI CH ELITE FO 102 4:48:52 09:19 6.44
969 7482 POURCHET VINCENT F VÉT I 176 4:48:54 09:19 6.44
970 6273 THURRE FLORENT CH ELITE HO 591 4:49:05 09:20 6.43
971 8007 ZURN NICOLAS CH ELITE HO 592 4:49:07 09:20 6.43
972 8181 FROESCH FABIEN CH VÉT I 177 4:49:07 09:20 6.43
973 8021 MATTHEY LAURENT CH VÉT I 178 4:49:08 09:20 6.43
974 8441 MONTEIRO PAULO F VÉT I 179 4:49:11 09:20 6.43
975 7444 MAILLARD ROBIN F ELITE HO 593 4:49:18 09:20 6.43
976 6518 BESNIER FLORENT CH ELITE HO 594 4:49:30 09:20 6.42
977 6537 CASTINEIRA SÉBASTIEN CH ELITE HO 595 4:49:35 09:20 6.42
978 8419 AGNETTI GAETAN F ELITE HO 596 4:49:54 09:21 6.42
979 6240 MUHR MARCUS D ELITE HO 597 4:49:57 09:21 6.41
980 6268 STREICHER FLORIAN D ELITE HO 598 4:49:57 09:21 6.41
981 6346 BOUDEAU SYLVAIN CH VÉT I 180 4:49:58 09:21 6.41
982 8174 DÜRRING MARTIN CH VÉT I 181 4:49:59 09:21 6.41
983 7506 SAWAYA GEORGES F ELITE HO 599 4:50:04 09:21 6.41
984 8491 BELLON JONATHAN CH ELITE HO 600 4:50:27 09:22 6.40
985 7412 JAUMAIN SIMON B ELITE HO 601 4:50:30 09:22 6.40
986 8097 LEPETZ MARINE CH FEMME I 20 4:50:36 09:22 6.40
987 8359 GALLEGO GABRIEL E ELITE HO 602 4:50:41 09:23 6.40
988 8331 AGUILAR MARIA E ELITE FO 103 4:50:42 09:23 6.40
989 8252 SCHERTENLEIB JOEL CH VÉT I 182 4:50:44 09:23 6.40
990 7227 PFISTER ALEXANDRE CH ELITE HO 603 4:50:55 09:23 6.39
991 7377 DUHÉ ARNAUD F ELITE HO 604 4:50:59 09:23 6.39
992 8244 ROUECHE JULIEN CH ELITE HO 605 4:51:17 09:24 6.39
993 7223 MEIER THIERRY CH ELITE HO 606 4:51:18 09:24 6.39
994 7498 RUEDIN STEPHANE CH VÉT I 183 4:51:19 09:24 6.38
995 7260 COLIN JULIEN F VÉT I 184 4:51:23 09:24 6.38
996 7122 ROSSI GIORGIO CH VÉT I 185 4:51:27 09:24 6.38
997 7250 ZUBER JEAN-YVES CH ELITE HO 607 4:51:28 09:24 6.38
998 7139 SQUITIERO THOMAS F ELITE HO 608 4:51:36 09:24 6.38
999 7263 DEVÈNES GRÉGORY CH ELITE HO 609 4:51:40 09:25 6.38
1000 7361 CROFT SHAUN F VÉT II 65 4:51:51 09:25 6.37
1001 7081 LOUREIRO LOLITA CH ELITE FO 104 4:51:54 09:25 6.37
1002 7278 SCHNEIDER REGULA CH FEMME I 21 4:52:03 09:25 6.37
1003 7233 ROSSI LAURENT CH ELITE HO 610 4:52:17 09:26 6.36
1004 8027 ARNOULD ALEXIS CH ELITE HO 611 4:52:21 09:26 6.36
1005 8456 VESIN SÉBASTIEN F ELITE HO 612 4:52:22 09:26 6.36
1006 7275 RAGOT BERTRAND CH ELITE HO 613 4:52:23 09:26 6.36
1007 8382 PITTET FLORIAN CH ELITE HO 614 4:52:35 09:26 6.36
1008 8125 BADIA BOHER JAUME-ADRIA E ELITE HO 615 4:52:38 09:26 6.36
1009 7156 ZIMMERMANN MARKUS CH ELITE HO 616 4:52:42 09:27 6.35
1010 8094 YERLY CHRISTIAN CH VÉT III 13 4:52:44 09:27 6.35
1011 8206 LE BERRE OLIVIER CH VÉT I 186 4:52:55 09:27 6.35
1012 7311 BELLOT NICOLAS F VÉT I 187 4:53:10 09:27 6.34
1013 7289 THIRION-LOPEZ LOIC F VÉT I 188 4:53:19 09:28 6.34
1014 6493 FOLEY SIMON CH VÉT I 189 4:53:20 09:28 6.34
1015 6497 KARURI JOHN CH VÉT I 190 4:53:47 09:29 6.33
1016 7340 CAMPBELL RICHARD GB VÉT I 191 4:54:04 09:29 6.33
1017 7167 DUBOIS YVES-ALAIN CH VÉT II 66 4:54:04 09:29 6.33
1018 8089 ROUSSY DANIÈLE CH FEMME II 7 4:54:26 09:30 6.32
1019 7428 LASHERAS ALEJANDRO CH ELITE HO 617 4:54:47 09:31 6.31
1020 8054 GENOUD NICOLAS CH VÉT I 192 4:54:57 09:31 6.31
1021 6511 ARCUDI CARMINE CH VÉT I 193 4:55:01 09:31 6.30
1022 7508 SCHIESS LAURENT F VÉT II 67 4:55:06 09:31 6.30
1023 7013 DANTENY CHRISTOPHE CH VÉT I 194 4:55:07 09:31 6.30
1024 7470 PATUREL STEPHANE F VÉT I 195 4:55:15 09:31 6.30
1025 8203 LAMBERCY BLAISE CH ELITE HO 618 4:55:19 09:32 6.30
1026 6467 JEKER DOMINIQUE CH VÉT I 196 4:55:23 09:32 6.30
1027 7208 HENRY ABEL CH ELITE HO 619 4:55:34 09:32 6.29
1028 8103 RENDULIC LEONARD CH ELITE HO 620 4:55:38 09:32 6.29
1029 8061 HUBIN FRANCOIS B VÉT I 197 4:55:48 09:33 6.29
1030 7119 REBETEZ STÉPHANE CH ELITE HO 621 4:56:03 09:33 6.28
1031 8048 FLEURY JULIANE CH ELITE FO 105 4:56:03 09:33 6.28
1032 8055 GIRARD OLIVIER CH ELITE HO 622 4:56:05 09:33 6.28
1033 7243 TINEL ANTOINE CH VÉT I 198 4:56:19 09:34 6.28
1034 8470 ST-LOUIS JOËL CAN VÉT II 68 4:56:21 09:34 6.28
1035 8029 BENTELE RALPH CH VÉT II 69 4:56:33 09:34 6.27
1036 7474 PERRUCHOUD CLAUDE CH VÉT II 70 4:56:34 09:34 6.27
1037 8257 SCHÖPFER MANUELA CH ELITE FO 106 4:56:40 09:34 6.27
1038 8436 L'HOIR THIBAUT B ELITE HO 623 4:56:41 09:34 6.27
1039 8213 LUCE CEDRIC F VÉT I 199 4:56:47 09:34 6.27
1040 8256 SCHULTE VINCENT CH ELITE HO 624 4:56:49 09:34 6.27
1041 7009 COUVET THIERRY F VÉT I 200 4:56:55 09:35 6.26
1042 7055 HARPER KIMBERLY CH ELITE FO 107 4:56:56 09:35 6.26
1043 7468 OPSOMMER MARIE B ELITE FO 108 4:56:56 09:35 6.26
1044 8186 GIZZI STEPHAN F VÉT II 71 4:57:12 09:35 6.26
1045 8013 BALTENSPERGER VINCENT CH ELITE HO 625 4:57:14 09:35 6.26
1046 8166 DE VOS OLIVIER B VÉT I 201 4:57:16 09:35 6.26
1047 8117 SONNEY GAEL CH ELITE HO 626 4:57:22 09:36 6.25
1048 8422 BONATI LIONEL CH ELITE HO 627 4:57:28 09:36 6.25
1049 8191 HAUSSENER SARAH CH FEMME I 22 4:57:29 09:36 6.25
1050 8057 GISLER FABRICE CH ELITE HO 628 4:57:37 09:36 6.25
1051 8372 MABICA STEPHAN CH ELITE HO 629 4:57:47 09:36 6.25
1052 7448 MELIN FRANCOIS B ELITE HO 630 4:57:48 09:36 6.25
1053 6463 ERENT JULIEN CH ELITE HO 631 4:57:49 09:36 6.25
1054 7347 CHARMILLOT GÉRALD CH VÉT III 14 4:57:51 09:36 6.24
1055 7296 VAN ACHTER BENOIT B ELITE HO 632 4:58:01 09:37 6.24
1056 8290 BARALON GUILLAUME F ELITE HO 633 4:58:06 09:37 6.24
1057 7507 SAWAYA LUC F ELITE HO 634 4:58:07 09:37 6.24
1058 8452 SCIBOZ PASCAL CH ELITE HO 635 4:58:10 09:37 6.24
1059 7201 FOUGERE YVES CH ELITE HO 636 4:58:14 09:37 6.24
1060 7471 PERON MATTHIEU F VÉT I 202 4:58:22 09:37 6.23
1061 7079 LIGEN YORICK CH ELITE HO 637 4:58:30 09:38 6.23
1062 6349 BROUIR LUC B VÉT II 72 4:58:42 09:38 6.23
1063 8301 HOFER FRANCOIS CH ELITE HO 638 4:58:44 09:38 6.23
1064 8334 AUPÉE ANTOINE CH ELITE HO 639 4:59:00 09:39 6.22
1065 7086 MARTIN GERARD F VÉT I 203 4:59:16 09:39 6.22
1066 8482 BONARD JÉRÉMIE CH ELITE HO 640 4:59:23 09:39 6.21
1067 8223 NUSSBAUM RICHARD F VÉT II 73 4:59:25 09:40 6.21
1068 8009 NEUENSCHWANDER CHRISTIAN CH VÉT II 74 4:59:30 09:40 6.21
1069 8355 DEZARNAULDS VINCENT F ELITE HO 641 4:59:59 09:41 6.20
1070 8403 BUSSARD VALÉRIE CH ELITE FO 109 5:00:00 09:41 6.20
1071 7438 LONGHI CHRISTIAN CH VÉT I 204 5:00:15 09:41 6.19
1072 7367 DE RIVAZ AILRED CH ELITE HO 642 5:00:22 09:41 6.19
1073 7203 GILLER JÉRÔME CH VÉT II 75 5:00:32 09:42 6.19
1074 6532 CARROEN CARL CH VÉT I 205 5:00:35 09:42 6.19
1075 6223 JORDENS ROMAIN B ELITE HO 643 5:00:51 09:42 6.18
1076 8045 DE LIEDEKERKE FLORENT B ELITE HO 644 5:01:00 09:43 6.18
1077 7500 RUMLEY SÉBASTIEN CH ELITE HO 645 5:01:05 09:43 6.18
1078 8526 SYNE LIONEL B VÉT I 206 5:01:11 09:43 6.18
1079 7158 ZULIANI ROMY F ELITE FO 110 5:01:18 09:43 6.17
1080 6437 GUILLERMO SYLVAIN F ELITE HO 646 5:01:33 09:44 6.17
1081 7043 GENNÉ LOUIS CH ELITE HO 647 5:01:52 09:44 6.16
1082 8495 CHEHIBA RHALAK F VÉT II 76 5:01:53 09:44 6.16
1083 8246 RUBATTEL JACQUES CH ELITE HO 648 5:01:58 09:44 6.16
1084 8164 DE BIASE ALFREDO CH VÉT II 77 5:02:00 09:45 6.16
1085 7526 THOMA MAXIMILIEN B VÉT I 207 5:02:04 09:45 6.16
1086 8075 MENETRAT DAVID CH VÉT I 208 5:02:11 09:45 6.16
1087 8228 PASEKOVA NIKOLA CH ELITE FO 111 5:02:30 09:45 6.15
1088 7360 COULTHARD ANJA GB FEMME I 23 5:02:36 09:46 6.15
1089 8058 GLOOR PHILIPP CH VÉT I 209 5:02:40 09:46 6.15
1090 7193 CLEMENT DAVID CH ELITE HO 649 5:02:40 09:46 6.15
1091 6458 ABEGG CHRISTIAN CH ELITE HO 650 5:03:12 09:47 6.13
1092 7509 SCHNEEBERGER THIERRY CH ELITE HO 651 5:03:12 09:47 6.13
1093 7530 TONSO IVAN F VÉT I 210 5:03:14 09:47 6.13
1094 7443 MACIAS MANUEL CH VÉT III 15 5:03:21 09:47 6.13
1095 8100 GOMEZ JOSÉ MANUEL CH VÉT II 78 5:03:24 09:47 6.13
1096 8222 NUSSBAUM JEAN-BAPTISTE F ELITE HO 652 5:03:42 09:48 6.12
1097 8416 MASNADA JEAN-SEBASTIEN CH VÉT I 211 5:03:45 09:48 6.12
1098 7159 CURDY MAXENCE F ELITE HO 653 5:04:21 09:49 6.11
1099 7166 DROZ DAVID CH ELITE HO 654 5:04:22 09:49 6.11
1100 7073 KÜHNI JOËL CH VÉT I 212 5:04:30 09:49 6.11
1101 7255 BORNER BENOÎT CH ELITE HO 655 5:04:32 09:49 6.11
1102 8520 REZZONICO JEAN FRANCOIS CH VÉT II 79 5:04:35 09:50 6.11
1103 7168 FREBERG CHRISTINE CH ELITE FO 112 5:04:38 09:50 6.11
1104 8325 PHILLOT NICOLAS CH ELITE HO 656 5:04:43 09:50 6.10
1105 8304 LEJOLY JÉRÉMY B ELITE HO 657 5:04:53 09:50 6.10
1106 8312 SCHMETZ DAVID B VÉT I 213 5:04:56 09:50 6.10
1107 7385 FERNANDEZ-VALDES JAVIER E VÉT I 214 5:05:12 09:51 6.09
1108 7286 KROPF MANUELA CH ELITE FO 113 5:05:19 09:51 6.09
1109 7290 VONLANTHEN ANDREAS CH VÉT I 215 5:05:20 09:51 6.09
1110 6334 VIOLET VALENTIN F ELITE HO 658 5:05:22 09:51 6.09
1111 8069 KOSTER FRANK CH ELITE HO 659 5:05:29 09:51 6.09
1112 8151 COLLET GILLES LOUIS F VÉT II 80 5:05:34 09:51 6.09
1113 7523 STROMBONI STÉPHANE F VÉT II 81 5:05:35 09:51 6.09
1114 8523 SACANNA MASSIMO I VÉT I 216 5:05:44 09:52 6.08
1115 7197 DE CARTIER BAPTISTE B ELITE HO 660 5:05:45 09:52 6.08
1116 7378 DUPONT ALAIN CH ELITE HO 661 5:05:46 09:52 6.08
1117 7442 LYNGNES BAARD GB VÉT I 217 5:05:47 09:52 6.08
1118 8087 ROUSSEL ALBAN F VÉT I 218 5:06:00 09:52 6.08
1119 6305 BURDET DIONYS CH ELITE HO 662 5:06:07 09:52 6.08
1120 6192 BOUTAVIN DANIEL F VÉT III 16 5:06:08 09:53 6.08
1121 7068 JOLY ANTOINE F ELITE HO 663 5:06:15 09:53 6.07
1122 7210 HUBERT PATRICK B ELITE HO 664 5:06:17 09:53 6.07
1123 8500 DE SMEDT JAN B VÉT II 82 5:06:19 09:53 6.07
1124 7224 MELIN ARNAUD B ELITE HO 665 5:06:20 09:53 6.07
1125 6320 HUTTENMOSER HADRIEN CH ELITE HO 666 5:06:24 09:53 6.07
1126 8285 REINMANN MARKUS CH VÉT III 17 5:06:26 09:53 6.07
1127 7244 TINNER CHRISTIAN CH VÉT I 219 5:06:29 09:53 6.07
1128 6476 SESSELLE GINO B VÉT I 220 5:06:30 09:53 6.07
1129 7437 LIÈVRE SIMON CH ELITE HO 667 5:06:42 09:54 6.06
1130 7316 BIEDERMANN MAXIME CH ELITE HO 668 5:06:43 09:54 6.06
1131 8295 CARTON JULIEN CH VÉT I 221 5:06:45 09:54 6.06
1132 8360 GASTALDO FRÉDÉRIC CH ELITE HO 669 5:06:48 09:54 6.06
1133 8284 HOCHREUTENER ALEXANDER CH ELITE HO 670 5:07:01 09:54 6.06
1134 8486 COUTET JEROME F VÉT I 222 5:07:02 09:54 6.06
1135 8028 BAERISWYL CÉDRIC CH ELITE HO 671 5:07:05 09:54 6.06
1136 8389 SORDET JOËLLE CH FEMME I 24 5:07:08 09:54 6.06
1137 8144 CHARRIÈRE VIVIAN CH ELITE HO 672 5:07:11 09:55 6.06
1138 8040 COLIN MICHEL CH VÉT III 18 5:07:30 09:55 6.05
1139 8468 DEGRAUWE NILS CH ELITE HO 673 5:07:37 09:55 6.05
1140 8156 COR ALEXANDRU CH ELITE HO 674 5:07:46 09:56 6.04
1141 8393 VAN LIEROP MAXIM B ELITE HO 675 5:07:54 09:56 6.04
1142 7308 BAYEUX PHILIPPE CH VÉT II 83 5:08:07 09:56 6.04
1143 8281 DE JESUS JORGE MANUEL CH ELITE HO 676 5:08:22 09:57 6.03
1144 8322 COQUARD STÉPHANE F VÉT I 223 5:08:26 09:57 6.03
1145 8060 HORTH NICOLAS B ELITE HO 677 5:08:36 09:57 6.03
1146 8099 ROSSEY OLIVIER B ELITE HO 678 5:08:37 09:57 6.03
1147 8426 CLERC AURÉLIEN CH ELITE HO 679 5:08:46 09:58 6.02
1148 8239 REULAND GUILLAUME F ELITE HO 680 5:09:06 09:58 6.02
1149 7267 KUYPERS CHRISTOPHE B VÉT I 224 5:09:17 09:59 6.01
1150 7251 TAYLOR KENNETH GB VÉT III 19 5:09:18 09:59 6.01
1151 6381 MOULET BORIS B ELITE HO 681 5:09:26 09:59 6.01
1152 7463 NGUYEN JULIEN CH ELITE HO 682 5:09:36 09:59 6.01
1153 8351 DE VIRON BRIEUC B ELITE HO 683 5:09:47 10:00 6.00
1154 8345 CIUTAD STEPHANE F VÉT II 84 5:10:07 10:00 6.00
1155 8047 FELLAY YANN CH ELITE HO 684 5:10:23 10:01 5.99
1156 8008 ÜSTÜN GONCA CH ELITE FO 114 5:10:24 10:01 5.99
1157 7499 RUFER MICHÈLE CH ELITE FO 115 5:10:42 10:01 5.99
1158 8481 PEYROU FABIEN F VÉT I 225 5:10:43 10:01 5.99
1159 8032 BOUTROIS GREGORY CH ELITE HO 685 5:10:50 10:02 5.98
1160 7147 VAN MALDEREN PAUL B VÉT III 20 5:10:52 10:02 5.98
1161 8212 LOOR PATRICE CH VÉT II 85 5:10:53 10:02 5.98
1162 7302 ANGIOLINI LUDOVIC CH ELITE HO 686 5:11:21 10:03 5.97
1163 8363 HANOSSET SANDRINE B ELITE FO 116 5:11:28 10:03 5.97
1164 7532 VANHOLLEBEKE MAXIME HKG VÉT I 226 5:11:38 10:03 5.97
1165 7355 CORDEIRO PEDRO CH VÉT I 227 5:11:53 10:04 5.96
1166 7185 BRUCHEZ NATHANAËL CH ELITE HO 687 5:11:58 10:04 5.96
1167 8145 CHATELAN PIERRE-ALAIN CH VÉT II 86 5:12:01 10:04 5.96
1168 7284 GONZALEZ JUAN ANTONIO E VÉT I 228 5:12:28 10:05 5.95
1169 7344 CEPPI PATRICK CH VÉT I 229 5:12:34 10:05 5.95
1170 8130 BERGUERAND ANOUK CH FEMME I 25 5:12:43 10:05 5.95
1171 8333 ASMUS YAMUNA CH ELITE FO 117 5:12:43 10:05 5.95
1172 8323 GUILLOD STEPHANIE CH ELITE FO 118 5:12:45 10:05 5.95
1173 8427 COLIN FRANÇOIS CH ELITE HO 688 5:12:52 10:06 5.95
1174 8221 NOLDE CHRYSTELLE CH ELITE FO 119 5:13:00 10:06 5.94
1175 8207 LEFORT PATRICE CH VÉT II 87 5:13:10 10:06 5.94
1176 8330 ABADIE THÉO CH ELITE HO 689 5:13:18 10:06 5.94
1177 8035 CALADO MARCO CH ELITE HO 690 5:13:32 10:07 5.93
1178 8214 MAINIER BENOIT F ELITE HO 691 5:13:42 10:07 5.93
1179 8093 WILSON TREVOR GB VÉT II 88 5:13:45 10:07 5.93
1180 8283 GLAUSER ANITA CH FEMME II 8 5:13:52 10:07 5.93
1181 8167 DESPONT ERIC CH VÉT II 89 5:13:56 10:08 5.92
1182 7418 JUNOD PASCAL CH VÉT I 230 5:14:07 10:08 5.92
1183 8451 ROHNER PIA CH FEMME II 9 5:14:41 10:09 5.91
1184 7172 PANIGAS KEVIN CH ELITE HO 692 5:14:41 10:09 5.91
1185 8101 DELCROIX FRANÇOIS CH VÉT I 231 5:14:42 10:09 5.91
1186 8102 SALMON BASILE CH ELITE HO 693 5:14:45 10:09 5.91
1187 8457 ZENGER REGULA CH FEMME II 10 5:14:49 10:09 5.91
1188 8079 OSTINELLI MARINA CH ELITE FO 120 5:15:01 10:10 5.90
1189 6141 THIEBLEMONT ALEXANDRE F VÉT II 90 5:15:11 10:10 5.90
1190 8282 GIGER NIKLAUS CH VÉT III 21 5:15:24 10:10 5.90
1191 7430 LECLERC NATHALIE F FEMME I 26 5:15:47 10:11 5.89
1192 7458 MOYA JEAN-LUC CH VÉT I 232 5:15:56 10:11 5.89
1193 7292 HEYDE JEAN-PHILIPPE B ELITE HO 694 5:16:06 10:12 5.88
1194 7293 BURNIER THIERRY CH VÉT II 91 5:16:14 10:12 5.88
1195 8338 BERGER MARINE B ELITE FO 121 5:16:16 10:12 5.88
1196 7364 DAVID JONATHAN CH ELITE HO 695 5:16:34 10:13 5.88
1197 8293 CAMPANA ALESSIA CH FEMME I 27 5:16:52 10:13 5.87
1198 7209 HILTY YOANN CH ELITE HO 696 5:16:56 10:13 5.87
1199 8162 DALLA CORTE LUDOVIC B ELITE HO 697 5:17:18 10:14 5.86
1200 8018 MAFFLI KATIA CH ELITE FO 122 5:17:21 10:14 5.86
1201 8432 EREMIA RADU CH VÉT II 92 5:17:29 10:14 5.86
1202 6185 AUBERSON DAVID CH ELITE HO 698 5:17:45 10:15 5.85
1203 8171 DROZ NICOLAS CH ELITE HO 699 5:17:45 10:15 5.85
1204 7371 DENTAN SYLVIE CH FEMME I 28 5:17:47 10:15 5.85
1205 8332 ALCARAZ JOËLLE CH ELITE FO 123 5:17:52 10:15 5.85
1206 7256 AUER JEAN-BAPTISTE F VÉT I 233 5:18:04 10:16 5.85
1207 8159 CURRAT ANNE CH FEMME I 29 5:18:40 10:17 5.84
1208 7288 PORRET OLIVIER CH VÉT III 22 5:18:41 10:17 5.84
1209 8160 CURRAT CÉDRIC CH VÉT I 234 5:18:41 10:17 5.84
1210 7494 ROSENGREN TOMAS S VÉT I 235 5:18:51 10:17 5.83
1211 7303 ANGIOLINI NICOLAS CH ELITE HO 700 5:18:52 10:17 5.83
1212 8077 MURAROTTO FABIO CH VÉT I 236 5:18:57 10:17 5.83
1213 8420 BECKER JONATHAN B ELITE HO 701 5:19:04 10:18 5.83
1214 7502 SANCHEZ OLIVIER CH VÉT I 237 5:19:10 10:18 5.83
1215 7501 SANCHEZ CHRISTOPHER CH ELITE HO 702 5:19:11 10:18 5.83
1216 8439 MELLY FRÉDÉRIC CH ELITE HO 703 5:19:17 10:18 5.83
1217 8135 BONNARD YANNICK CH ELITE HO 704 5:19:17 10:18 5.83
1218 8126 BARATA CARLOS F VÉT I 238 5:19:22 10:18 5.82
1219 8341 BONGINI PATRICIA CH FEMME II 11 5:19:29 10:18 5.82
1220 7258 BARTHE SVEN CH ELITE HO 705 5:19:35 10:19 5.82
1221 8413 GUERRAND GRÉGORY F VÉT I 239 5:19:52 10:19 5.81
1222 7373 DIOGUARDI ARMANDO CH ELITE HO 706 5:19:54 10:19 5.81
1223 8503 GROSS ALEXANDRE CH VÉT III 23 5:19:55 10:19 5.81
1224 8022 BAUMGARTNER MARKUS CH VÉT II 93 5:19:57 10:19 5.81
1225 8390 TELEMAC SYLVAIN CH ELITE HO 707 5:20:02 10:19 5.81
1226 8407 ANSCHELL NICOLE CH ELITE FO 124 5:20:48 10:21 5.80
1227 7277 ROCHAT JADE CH ELITE FO 125 5:20:49 10:21 5.80
1228 6218 GYGAX RÉMO CH ELITE HO 708 5:20:49 10:21 5.80
1229 7117 PRESOT GABRIELE CH VÉT I 240 5:20:50 10:21 5.80
1230 7479 PLANCHAMP XAVIER CH ELITE HO 709 5:20:59 10:21 5.79
1231 8147 CHRISTEN GILBERT - VÉT III 24 5:21:02 10:21 5.79
1232 8231 PEKCAN SELIN CH ELITE FO 126 5:21:03 10:21 5.79
1233 8070 LANGENEGGER LIONEL CH VÉT II 94 5:21:08 10:22 5.79
1234 8132 BIZOLLON CHARLES F ELITE HO 710 5:21:11 10:22 5.79
1235 8133 BIZOLLON LOUIS-MARIE F ELITE HO 711 5:21:13 10:22 5.79
1236 7456 MORISOLI SAMUELE CH ELITE HO 712 5:21:33 10:22 5.78
1237 8016 GRANDJEAN NICOLAS CH VÉT I 241 5:21:35 10:22 5.78
1238 8421 BESSON BENJAMIN CH ELITE HO 713 5:21:36 10:22 5.78
1239 8172 DUPONT FRÉDÉRIC CH VÉT I 242 5:22:04 10:23 5.78
1240 7136 SOMVILLE PIERRE-RENE B VÉT I 243 5:22:16 10:24 5.77
1241 8237 RADERMECKER ISABELLE B FEMME I 30 5:22:19 10:24 5.77
1242 8141 CARREL FLORIAN CH VÉT I 244 5:22:27 10:24 5.77
1243 8238 REICHLE MARKUS CH VÉT II 95 5:22:29 10:24 5.77
1244 8197 JEQUIER MICHEL CH VÉT III 25 5:22:38 10:24 5.77
1245 7505 SAUTEUR LUDOVIC CH ELITE HO 714 5:22:38 10:24 5.77
1246 7301 ANFOSSO HUGUES F ELITE HO 715 5:22:41 10:25 5.76
1247 7445 MARGUET VINCENT F ELITE HO 716 5:22:41 10:25 5.76
1248 7383 FAVRE VÉRONIQUE CH FEMME I 31 5:22:54 10:25 5.76
1249 7467 OLIVIER RAPHAËL F VÉT I 245 5:23:00 10:25 5.76
1250 7469 PAILLARD JEROME F VÉT I 246 5:23:19 10:26 5.75
1251 8082 PELLATON CÉLINE CH FEMME I 32 5:24:08 10:27 5.74
1252 8204 LAMOTHE YVAN CH VÉT I 247 5:24:13 10:28 5.74
1253 7307 BARBIER OLIVIER CH VÉT I 248 5:24:20 10:28 5.73
1254 7478 PILLET FABRICE CH VÉT II 96 5:24:30 10:28 5.73
1255 7037 GABERTHUEL MICHAEL CH VÉT I 249 5:25:25 10:30 5.72
1256 7113 PEREZ SONIA CH FEMME I 33 5:25:25 10:30 5.72
1257 7333 BUCKLAND BEN CH ELITE HO 717 5:25:26 10:30 5.72
1258 8169 DI BLASIO JAN CLAUS I ELITE HO 718 5:25:27 10:30 5.72
1259 7089 MCGLOUGHLIN MICHAEL GB VÉT III 26 5:25:28 10:30 5.71
1260 7213 JOUNEAU BERTRAND F VÉT II 97 5:25:32 10:30 5.71
1261 7015 DE CANDOLLE CHARLES CH ELITE HO 719 5:25:33 10:30 5.71
1262 8391 THEVENAZ JEANNE-ALINE CH FEMME I 34 5:25:39 10:30 5.71
1263 8347 CORTAT LOVA CH ELITE FO 127 5:25:41 10:30 5.71
1264 8068 KOHLER DIMITRI CH ELITE HO 720 5:25:43 10:30 5.71
1265 8273 VARNEROT CYRIL CH ELITE HO 721 5:25:47 10:31 5.71
1266 7462 NEFIL SAMIR CH VÉT I 250 5:25:51 10:31 5.71
1267 7003 CHATEIGNER FLORENT F VÉT I 251 5:25:59 10:31 5.71
1268 7221 MANI JEAN-CHRISTOPHE CH VÉT I 252 5:25:59 10:31 5.71
1269 8518 RAUSIS CHANTAL CH FEMME I 35 5:26:17 10:32 5.70
1270 8023 LUTZ YGOR CH VÉT I 253 5:26:26 10:32 5.70
1271 8505 HOULMANN RAPHAEL CH VÉT I 254 5:26:29 10:32 5.70
1272 8020 TADDEI GABRIELE CH VÉT II 98 5:26:30 10:32 5.70
1273 7150 VANTAI HEINUI CH ELITE HO 722 5:26:41 10:32 5.69
1274 8110 FRISON MARTIN F ELITE HO 723 5:26:43 10:32 5.69
1275 8105 CHAMBERT DORIANE F ELITE FO 128 5:26:44 10:32 5.69
1276 7169 LOUVRIER VINCENT B VÉT II 99 5:26:45 10:32 5.69
1277 7125 RUCHET JÉRÔME CH ELITE HO 724 5:26:45 10:32 5.69
1278 7160 JOTTERAND AUDE CH ELITE FO 129 5:26:53 10:33 5.69
1279 8314 SCHWAAR NICOLAS CH VÉT II 100 5:26:56 10:33 5.69
1280 8315 SCHWAAR VINCENT CAN VÉT II 101 5:26:56 10:33 5.69
1281 8380 PELLET SÉBASTIEN CH ELITE HO 725 5:26:58 10:33 5.69
1282 7529 TISSOT YANNICK CH ELITE HO 726 5:27:01 10:33 5.69
1283 8513 MAROT ASTRID B ELITE FO 130 5:27:15 10:33 5.68
1284 7184 BONVIN MARC RENÉ CH ELITE HO 727 5:27:17 10:33 5.68
1285 8386 ROQUES NATHALIE CH ELITE FO 131 5:27:19 10:34 5.68
1286 7272 METRY SABINE CH FEMME I 36 5:27:21 10:34 5.68
1287 8464 REY JOSÉ CH VÉT I 255 5:27:28 10:34 5.68
1288 8395 VERMEULEN-STULEN JANNET NL FEMME II 12 5:27:28 10:34 5.68
1289 8309 PAGOTTO PATRICK CH VÉT I 256 5:27:33 10:34 5.68
1290 8374 MAUXION GÉRARD CH VÉT I 257 5:27:33 10:34 5.68
1291 7067 JEQUIER ADRIEN CH ELITE HO 728 5:27:44 10:34 5.68
1292 7537 WEBER YVAN CH VÉT II 102 5:27:53 10:35 5.67
1293 7237 SEGUIN PATRICIA F FEMME I 37 5:28:00 10:35 5.67
1294 7262 DECOMBEJEAN XAVIER F VÉT I 258 5:28:24 10:36 5.66
1295 7393 GEBARA ELIAS CH ELITE HO 729 5:28:26 10:36 5.66
1296 7325 BOTELLA CAROLINE F ELITE FO 132 5:28:27 10:36 5.66